Time,TemperatureF,DewpointF,PressureIn,WindDirection,WindDirectionDegrees,WindSpeedMPH,WindSpeedGustMPH,Humidity,HourlyPrecipIn,Conditions,Clouds,dailyrainin,SoftwareType,DateUTC
2013-04-17 00:00:00,49.7,42.8,29.92,SE,131,1.0,1.0,77,0.00,,,0.00,VWS V14.01,2013-04-17 07:00:00,
2013-04-17 00:01:00,49.6,42.7,29.92,SE,134,1.0,1.0,77,0.00,,,0.00,VWS V14.01,2013-04-17 07:01:00,
2013-04-17 00:02:00,49.5,42.6,29.92,SE,136,1.0,1.0,77,0.00,,,0.00,VWS V14.01,2013-04-17 07:02:00,
2013-04-17 00:03:00,49.5,42.6,29.92,SE,136,0.0,1.0,77,0.00,,,0.00,VWS V14.01,2013-04-17 07:03:00,
2013-04-17 00:04:00,49.5,42.6,29.92,SE,136,1.0,1.0,77,0.00,,,0.00,VWS V14.01,2013-04-17 07:04:00,
2013-04-17 00:05:00,49.4,42.5,29.92,SE,129,1.0,1.0,77,0.00,,,0.00,VWS V14.01,2013-04-17 07:05:00,
2013-04-17 00:06:00,49.4,42.8,29.92,SE,132,2.0,2.0,78,0.00,,,0.00,VWS V14.01,2013-04-17 07:06:00,
2013-04-17 00:07:00,49.4,42.8,29.92,SE,132,2.0,2.0,78,0.00,,,0.00,VWS V14.01,2013-04-17 07:07:00,
2013-04-17 00:08:00,49.4,42.8,29.92,ESE,117,0.0,2.0,78,0.00,,,0.00,VWS V14.01,2013-04-17 07:08:00,
2013-04-17 00:09:00,49.4,42.8,29.92,ESE,115,1.0,1.0,78,0.00,,,0.00,VWS V14.01,2013-04-17 07:09:00,
2013-04-17 00:10:00,49.4,42.8,29.92,ESE,115,1.0,1.0,78,0.00,,,0.00,VWS V14.01,2013-04-17 07:10:00,
2013-04-17 00:11:00,49.4,42.8,29.92,ESE,106,1.0,1.0,78,0.00,,,0.00,VWS V14.01,2013-04-17 07:11:00,
2013-04-17 00:12:00,49.4,42.8,29.92,East,93,1.0,1.0,78,0.00,,,0.00,VWS V14.01,2013-04-17 07:12:00,
2013-04-17 00:13:00,49.4,42.8,29.92,East,93,1.0,1.0,78,0.00,,,0.00,VWS V14.01,2013-04-17 07:13:00,
2013-04-17 00:14:00,49.4,42.8,29.92,East,94,2.0,2.0,78,0.00,,,0.00,VWS V14.01,2013-04-17 07:14:00,
2013-04-17 00:15:00,49.5,42.9,29.92,ESE,112,1.0,2.0,78,0.00,,,0.00,VWS V14.01,2013-04-17 07:15:00,
2013-04-17 00:16:00,49.5,42.9,29.92,ESE,111,1.0,2.0,78,0.00,,,0.00,VWS V14.01,2013-04-17 07:16:00,
2013-04-17 00:17:00,49.5,42.9,29.92,SE,138,1.0,1.0,78,0.00,,,0.00,VWS V14.01,2013-04-17 07:17:00,
2013-04-17 00:18:00,49.5,42.9,29.92,SSE,152,1.0,1.0,78,0.00,,,0.00,VWS V14.01,2013-04-17 07:18:00,
2013-04-17 00:19:00,49.5,42.9,29.92,SSE,152,1.0,1.0,78,0.00,,,0.00,VWS V14.01,2013-04-17 07:19:00,
2013-04-17 00:20:00,49.5,42.9,29.92,SSE,152,1.0,1.0,78,0.00,,,0.00,VWS V14.01,2013-04-17 07:20:00,
2013-04-17 00:21:00,49.4,42.8,29.93,SE,134,2.0,2.0,78,0.00,,,0.00,VWS V14.01,2013-04-17 07:21:00,
2013-04-17 00:22:00,49.3,42.7,29.93,SE,141,1.0,1.0,78,0.00,,,0.00,VWS V14.01,2013-04-17 07:22:00,
2013-04-17 00:23:00,49.2,42.6,29.93,SE,141,0.0,1.0,78,0.00,,,0.00,VWS V14.01,2013-04-17 07:23:00,
2013-04-17 00:24:00,49.2,42.6,29.93,SE,141,0.0,0.0,78,0.00,,,0.00,VWS V14.01,2013-04-17 07:24:00,
2013-04-17 00:25:00,49.2,42.6,29.93,SE,141,1.0,1.0,78,0.00,,,0.00,VWS V14.01,2013-04-17 07:25:00,
2013-04-17 00:26:00,49.2,42.6,29.93,SE,141,1.0,1.0,78,0.00,,,0.00,VWS V14.01,2013-04-17 07:26:00,
2013-04-17 00:27:00,49.2,42.6,29.93,SE,141,0.0,1.0,78,0.00,,,0.00,VWS V14.01,2013-04-17 07:27:00,
2013-04-17 00:28:00,49.2,42.6,29.93,SE,141,0.0,0.0,78,0.00,,,0.00,VWS V14.01,2013-04-17 07:28:00,
2013-04-17 00:29:00,49.2,42.6,29.93,SE,141,0.0,0.0,78,0.00,,,0.00,VWS V14.01,2013-04-17 07:29:00,
2013-04-17 00:30:00,49.1,42.5,29.93,SE,141,0.0,0.0,78,0.00,,,0.00,VWS V14.01,2013-04-17 07:30:00,
2013-04-17 00:31:00,49.1,42.5,29.93,SE,141,0.0,0.0,78,0.00,,,0.00,VWS V14.01,2013-04-17 07:31:00,
2013-04-17 00:32:00,49.1,42.5,29.93,SE,141,1.0,1.0,78,0.00,,,0.00,VWS V14.01,2013-04-17 07:32:00,
2013-04-17 00:33:00,49.1,42.9,29.93,SE,141,1.0,1.0,79,0.00,,,0.00,VWS V14.01,2013-04-17 07:33:00,
2013-04-17 00:34:00,49.1,42.9,29.93,SE,141,0.0,0.0,79,0.00,,,0.00,VWS V14.01,2013-04-17 07:34:00,
2013-04-17 00:35:00,49.1,42.9,29.93,SE,141,0.0,1.0,79,0.00,,,0.00,VWS V14.01,2013-04-17 07:35:00,
2013-04-17 00:36:00,49.1,42.9,29.93,SE,141,0.0,0.0,79,0.00,,,0.00,VWS V14.01,2013-04-17 07:36:00,
2013-04-17 00:37:00,49.1,42.9,29.93,SE,141,0.0,0.0,79,0.00,,,0.00,VWS V14.01,2013-04-17 07:37:00,
2013-04-17 00:38:00,49.1,42.9,29.93,SE,141,0.0,0.0,79,0.00,,,0.00,VWS V14.01,2013-04-17 07:38:00,
2013-04-17 00:39:00,49.1,42.9,29.93,SE,141,0.0,1.0,79,0.00,,,0.00,VWS V14.01,2013-04-17 07:39:00,
2013-04-17 00:40:00,49.1,42.9,29.93,East,83,1.0,2.0,79,0.00,,,0.00,VWS V14.01,2013-04-17 07:40:00,
2013-04-17 00:41:00,49.2,43.0,29.93,East,80,2.0,2.0,79,0.00,,,0.00,VWS V14.01,2013-04-17 07:41:00,
2013-04-17 00:42:00,49.2,43.0,29.93,East,80,2.0,2.0,79,0.00,,,0.00,VWS V14.01,2013-04-17 07:42:00,
2013-04-17 00:43:00,49.2,43.0,29.93,East,82,1.0,1.0,79,0.00,,,0.00,VWS V14.01,2013-04-17 07:43:00,
2013-04-17 00:44:00,49.2,43.0,29.93,East,82,1.0,1.0,79,0.00,,,0.00,VWS V14.01,2013-04-17 07:44:00,
2013-04-17 00:45:00,49.2,43.0,29.93,East,82,1.0,1.0,79,0.00,,,0.00,VWS V14.01,2013-04-17 07:45:00,
2013-04-17 00:46:00,49.2,43.0,29.93,ESE,102,1.0,2.0,79,0.00,,,0.00,VWS V14.01,2013-04-17 07:46:00,
2013-04-17 00:47:00,49.2,43.0,29.93,East,88,2.0,3.0,79,0.00,,,0.00,VWS V14.01,2013-04-17 07:47:00,
2013-04-17 00:48:00,49.2,43.0,29.93,East,88,2.0,3.0,79,0.00,,,0.00,VWS V14.01,2013-04-17 07:48:00,
2013-04-17 00:49:00,49.2,43.0,29.93,East,101,1.0,1.0,79,0.00,,,0.00,VWS V14.01,2013-04-17 07:49:00,
2013-04-17 00:50:00,49.2,43.0,29.93,ESE,117,1.0,2.0,79,0.00,,,0.00,VWS V14.01,2013-04-17 07:50:00,
2013-04-17 00:51:00,49.1,42.9,29.93,ESE,110,1.0,2.0,79,0.00,,,0.00,VWS V14.01,2013-04-17 07:51:00,
2013-04-17 00:52:00,49.0,42.8,29.93,ESE,107,1.0,1.0,79,0.00,,,0.00,VWS V14.01,2013-04-17 07:52:00,
2013-04-17 00:53:00,48.9,42.7,29.93,ESE,108,1.0,1.0,79,0.00,,,0.00,VWS V14.01,2013-04-17 07:53:00,
2013-04-17 00:54:00,48.8,42.6,29.93,SE,136,1.0,1.0,79,0.00,,,0.00,VWS V14.01,2013-04-17 07:54:00,
2013-04-17 00:55:00,48.8,42.6,29.93,SE,136,1.0,1.0,79,0.00,,,0.00,VWS V14.01,2013-04-17 07:55:00,
2013-04-17 00:56:00,48.7,42.5,29.93,SE,136,0.0,1.0,79,0.00,,,0.00,VWS V14.01,2013-04-17 07:56:00,
2013-04-17 00:57:00,48.5,42.3,29.93,SE,136,0.0,0.0,79,0.00,,,0.00,VWS V14.01,2013-04-17 07:57:00,
2013-04-17 00:58:00,48.5,42.3,29.93,SE,136,0.0,0.0,79,0.00,,,0.00,VWS V14.01,2013-04-17 07:58:00,
2013-04-17 00:59:00,48.4,42.2,29.93,SE,136,0.0,0.0,79,0.00,,,0.00,VWS V14.01,2013-04-17 07:59:00,
2013-04-17 01:00:00,48.2,42.0,29.93,SE,136,0.0,0.0,79,0.00,,,0.00,VWS V14.01,2013-04-17 08:00:00,
2013-04-17 01:01:00,48.2,42.3,29.93,SE,136,0.0,0.0,80,0.00,,,0.00,VWS V14.01,2013-04-17 08:01:00,
2013-04-17 01:02:00,48.3,42.1,29.93,SE,136,0.0,0.0,79,0.00,,,0.00,VWS V14.01,2013-04-17 08:02:00,
2013-04-17 01:03:00,48.1,42.2,29.93,SE,136,0.0,0.0,80,0.00,,,0.00,VWS V14.01,2013-04-17 08:03:00,
2013-04-17 01:04:00,48.1,42.2,29.93,ESE,118,1.0,1.0,80,0.00,,,0.00,VWS V14.01,2013-04-17 08:04:00,
2013-04-17 01:05:00,48.1,42.2,29.93,ESE,117,1.0,1.0,80,0.00,,,0.00,VWS V14.01,2013-04-17 08:05:00,
2013-04-17 01:06:00,48.1,42.5,29.93,ESE,110,2.0,2.0,81,0.00,,,0.00,VWS V14.01,2013-04-17 08:06:00,
2013-04-17 01:07:00,48.2,42.7,29.93,ESE,115,1.0,1.0,81,0.00,,,0.00,VWS V14.01,2013-04-17 08:07:00,
2013-04-17 01:08:00,48.2,42.7,29.93,ESE,115,0.0,1.0,81,0.00,,,0.00,VWS V14.01,2013-04-17 08:08:00,
2013-04-17 01:09:00,48.2,42.7,29.93,ESE,115,0.0,1.0,81,0.00,,,0.00,VWS V14.01,2013-04-17 08:09:00,
2013-04-17 01:10:00,48.2,42.7,29.93,ESE,116,1.0,1.0,81,0.00,,,0.00,VWS V14.01,2013-04-17 08:10:00,
2013-04-17 01:11:00,48.2,42.7,29.93,ESE,114,1.0,1.0,81,0.00,,,0.00,VWS V14.01,2013-04-17 08:11:00,
2013-04-17 01:12:00,48.2,42.7,29.93,ESE,110,1.0,2.0,81,0.00,,,0.00,VWS V14.01,2013-04-17 08:12:00,
2013-04-17 01:13:00,48.2,42.7,29.93,ESE,110,1.0,2.0,81,0.00,,,0.00,VWS V14.01,2013-04-17 08:13:00,
2013-04-17 01:14:00,48.1,42.5,29.93,ESE,108,1.0,1.0,81,0.00,,,0.00,VWS V14.01,2013-04-17 08:14:00,
2013-04-17 01:15:00,48.1,42.5,29.93,ESE,103,1.0,1.0,81,0.00,,,0.00,VWS V14.01,2013-04-17 08:15:00,
2013-04-17 01:16:00,48.0,42.5,29.93,East,96,2.0,2.0,81,0.00,,,0.00,VWS V14.01,2013-04-17 08:16:00,
2013-04-17 01:17:00,48.0,42.5,29.93,ESE,113,2.0,3.0,81,0.00,,,0.00,VWS V14.01,2013-04-17 08:17:00,
2013-04-17 01:18:00,48.0,42.5,29.93,ESE,113,2.0,3.0,81,0.00,,,0.00,VWS V14.01,2013-04-17 08:18:00,
2013-04-17 01:19:00,48.1,42.6,29.94,East,96,0.0,0.0,81,0.00,,,0.00,VWS V14.01,2013-04-17 08:19:00,
2013-04-17 01:20:00,48.1,42.5,29.94,East,96,0.0,0.0,81,0.00,,,0.00,VWS V14.01,2013-04-17 08:20:00,
2013-04-17 01:21:00,48.1,42.5,29.94,ESE,110,1.0,2.0,81,0.00,,,0.00,VWS V14.01,2013-04-17 08:21:00,
2013-04-17 01:22:00,48.1,42.5,29.94,ESE,104,1.0,2.0,81,0.00,,,0.00,VWS V14.01,2013-04-17 08:22:00,
2013-04-17 01:23:00,48.1,42.6,29.93,ESE,117,1.0,2.0,81,0.00,,,0.00,VWS V14.01,2013-04-17 08:23:00,
2013-04-17 01:24:00,48.1,42.5,29.93,ESE,117,1.0,1.0,81,0.00,,,0.00,VWS V14.01,2013-04-17 08:24:00,
2013-04-17 01:25:00,48.0,42.5,29.93,SE,127,1.0,1.0,81,0.00,,,0.00,VWS V14.01,2013-04-17 08:25:00,
2013-04-17 01:26:00,48.0,42.5,29.93,SE,127,1.0,1.0,81,0.00,,,0.00,VWS V14.01,2013-04-17 08:26:00,
2013-04-17 01:27:00,48.1,42.6,29.94,SSE,156,1.0,1.0,81,0.00,,,0.00,VWS V14.01,2013-04-17 08:27:00,
2013-04-17 01:28:00,48.1,42.5,29.94,SSE,156,1.0,1.0,81,0.00,,,0.00,VWS V14.01,2013-04-17 08:28:00,
2013-04-17 01:29:00,48.0,42.5,29.94,SSE,158,1.0,1.0,81,0.00,,,0.00,VWS V14.01,2013-04-17 08:29:00,
2013-04-17 01:30:00,48.0,42.5,29.93,SSE,167,0.0,1.0,81,0.00,,,0.00,VWS V14.01,2013-04-17 08:30:00,
2013-04-17 01:31:00,48.0,42.5,29.93,SSE,167,0.0,1.0,81,0.00,,,0.00,VWS V14.01,2013-04-17 08:31:00,
2013-04-17 01:32:00,48.0,42.8,29.94,SSE,166,0.0,1.0,82,0.00,,,0.00,VWS V14.01,2013-04-17 08:32:00,
2013-04-17 01:33:00,48.0,42.8,29.94,SSE,166,0.0,1.0,82,0.00,,,0.00,VWS V14.01,2013-04-17 08:33:00,
2013-04-17 01:34:00,48.0,42.8,29.94,SSE,166,0.0,0.0,82,0.00,,,0.00,VWS V14.01,2013-04-17 08:34:00,
2013-04-17 01:35:00,48.2,43.0,29.94,ESE,105,2.0,2.0,82,0.00,,,0.00,VWS V14.01,2013-04-17 08:35:00,
2013-04-17 01:36:00,48.2,43.0,29.94,ESE,105,2.0,2.0,82,0.00,,,0.00,VWS V14.01,2013-04-17 08:36:00,
2013-04-17 01:37:00,48.5,42.9,29.94,SE,136,1.0,1.0,81,0.00,,,0.00,VWS V14.01,2013-04-17 08:37:00,
2013-04-17 01:38:00,48.5,42.9,29.94,SE,139,1.0,1.0,81,0.00,,,0.00,VWS V14.01,2013-04-17 08:38:00,
2013-04-17 01:39:00,48.5,43.0,29.94,SE,139,1.0,1.0,81,0.00,,,0.00,VWS V14.01,2013-04-17 08:39:00,
2013-04-17 01:40:00,48.5,43.0,29.94,SE,139,0.0,1.0,81,0.00,,,0.00,VWS V14.01,2013-04-17 08:40:00,
2013-04-17 01:41:00,48.5,42.6,29.94,WNW,283,1.0,2.0,80,0.00,,,0.00,VWS V14.01,2013-04-17 08:41:00,
2013-04-17 01:42:00,48.5,42.6,29.94,WNW,283,1.0,2.0,80,0.00,,,0.00,VWS V14.01,2013-04-17 08:42:00,
2013-04-17 01:43:00,48.5,42.6,29.94,West,275,0.0,1.0,80,0.00,,,0.00,VWS V14.01,2013-04-17 08:43:00,
2013-04-17 01:44:00,48.4,42.5,29.94,SW,233,1.0,1.0,80,0.00,,,0.00,VWS V14.01,2013-04-17 08:44:00,
2013-04-17 01:45:00,48.4,42.5,29.94,SW,233,1.0,1.0,80,0.00,,,0.00,VWS V14.01,2013-04-17 08:45:00,
2013-04-17 01:46:00,48.4,42.5,29.94,SSE,150,0.0,1.0,80,0.00,,,0.00,VWS V14.01,2013-04-17 08:46:00,
2013-04-17 01:47:00,48.4,42.5,29.94,SSE,150,0.0,1.0,80,0.00,,,0.00,VWS V14.01,2013-04-17 08:47:00,
2013-04-17 01:48:00,48.4,42.5,29.94,SSE,150,1.0,1.0,80,0.00,,,0.00,VWS V14.01,2013-04-17 08:48:00,
2013-04-17 01:49:00,48.4,42.5,29.94,SSE,151,1.0,1.0,80,0.00,,,0.00,VWS V14.01,2013-04-17 08:49:00,
2013-04-17 01:50:00,48.3,42.4,29.94,SSE,150,0.0,0.0,80,0.00,,,0.00,VWS V14.01,2013-04-17 08:50:00,
2013-04-17 01:51:00,48.3,42.4,29.94,SSE,150,0.0,0.0,80,0.00,,,0.00,VWS V14.01,2013-04-17 08:51:00,
2013-04-17 01:52:00,48.3,42.4,29.94,SSE,150,0.0,0.0,80,0.00,,,0.00,VWS V14.01,2013-04-17 08:52:00,
2013-04-17 01:53:00,48.3,42.4,29.94,SSE,150,0.0,0.0,80,0.00,,,0.00,VWS V14.01,2013-04-17 08:53:00,
2013-04-17 01:54:00,48.2,42.3,29.94,SSE,150,0.0,0.0,80,0.00,,,0.00,VWS V14.01,2013-04-17 08:54:00,
2013-04-17 01:55:00,48.1,42.2,29.94,SSE,151,0.0,0.0,80,0.00,,,0.00,VWS V14.01,2013-04-17 08:55:00,
2013-04-17 01:56:00,48.1,42.2,29.94,SSE,151,1.0,1.0,80,0.00,,,0.00,VWS V14.01,2013-04-17 08:56:00,
2013-04-17 01:57:00,48.1,42.2,29.94,SE,127,1.0,1.0,80,0.00,,,0.00,VWS V14.01,2013-04-17 08:57:00,
2013-04-17 01:58:00,48.2,42.7,29.94,SE,126,1.0,1.0,81,0.00,,,0.00,VWS V14.01,2013-04-17 08:58:00,
2013-04-17 01:59:00,48.2,42.3,29.94,WNW,282,1.0,1.0,80,0.00,,,0.00,VWS V14.01,2013-04-17 08:59:00,
2013-04-17 02:00:00,48.2,42.3,29.94,WNW,283,1.0,1.0,80,0.00,,,0.00,VWS V14.01,2013-04-17 09:00:00,
2013-04-17 02:01:00,48.1,42.6,29.94,West,274,0.0,1.0,81,0.00,,,0.00,VWS V14.01,2013-04-17 09:01:00,
2013-04-17 02:02:00,48.1,42.2,29.94,West,274,0.0,0.0,80,0.00,,,0.00,VWS V14.01,2013-04-17 09:02:00,
2013-04-17 02:03:00,48.1,42.2,29.94,NW,305,0.0,1.0,80,0.00,,,0.00,VWS V14.01,2013-04-17 09:03:00,
2013-04-17 02:04:00,48.0,42.5,29.94,North,354,1.0,2.0,81,0.00,,,0.00,VWS V14.01,2013-04-17 09:04:00,
2013-04-17 02:05:00,48.1,42.5,29.94,North,354,1.0,1.0,81,0.00,,,0.00,VWS V14.01,2013-04-17 09:05:00,
2013-04-17 02:06:00,48.1,42.6,29.94,North,354,0.0,0.0,81,0.00,,,0.00,VWS V14.01,2013-04-17 09:06:00,
2013-04-17 02:07:00,48.1,42.6,29.94,North,354,0.0,0.0,81,0.00,,,0.00,VWS V14.01,2013-04-17 09:07:00,
2013-04-17 02:08:00,48.1,42.5,29.94,North,354,0.0,0.0,81,0.00,,,0.00,VWS V14.01,2013-04-17 09:08:00,
2013-04-17 02:09:00,48.1,42.2,29.94,West,271,1.0,1.0,80,0.00,,,0.00,VWS V14.01,2013-04-17 09:09:00,
2013-04-17 02:10:00,48.0,42.1,29.94,West,272,0.0,1.0,80,0.00,,,0.00,VWS V14.01,2013-04-17 09:10:00,
2013-04-17 02:11:00,48.0,42.1,29.94,West,271,1.0,1.0,80,0.00,,,0.00,VWS V14.01,2013-04-17 09:11:00,
2013-04-17 02:12:00,47.9,42.0,29.94,West,271,0.0,1.0,80,0.00,,,0.00,VWS V14.01,2013-04-17 09:12:00,
2013-04-17 02:13:00,47.9,42.0,29.94,West,271,0.0,1.0,80,0.00,,,0.00,VWS V14.01,2013-04-17 09:13:00,
2013-04-17 02:14:00,47.8,42.3,29.94,ENE,75,1.0,2.0,81,0.00,,,0.00,VWS V14.01,2013-04-17 09:14:00,
2013-04-17 02:15:00,47.8,42.3,29.94,ENE,75,1.0,2.0,81,0.00,,,0.00,VWS V14.01,2013-04-17 09:15:00,
2013-04-17 02:16:00,47.8,42.3,29.94,ENE,77,1.0,2.0,81,0.00,,,0.00,VWS V14.01,2013-04-17 09:16:00,
2013-04-17 02:17:00,47.7,42.2,29.94,ESE,115,1.0,2.0,81,0.00,,,0.00,VWS V14.01,2013-04-17 09:17:00,
2013-04-17 02:18:00,47.7,42.2,29.94,ESE,115,1.0,2.0,81,0.00,,,0.00,VWS V14.01,2013-04-17 09:18:00,
2013-04-17 02:19:00,47.7,42.2,29.94,ESE,108,1.0,2.0,81,0.00,,,0.00,VWS V14.01,2013-04-17 09:19:00,
2013-04-17 02:20:00,47.7,42.2,29.94,ESE,108,1.0,2.0,81,0.00,,,0.00,VWS V14.01,2013-04-17 09:20:00,
2013-04-17 02:21:00,47.7,42.2,29.94,ESE,121,1.0,2.0,81,0.00,,,0.00,VWS V14.01,2013-04-17 09:21:00,
2013-04-17 02:22:00,47.5,42.0,29.94,SE,144,0.0,1.0,81,0.00,,,0.00,VWS V14.01,2013-04-17 09:22:00,
2013-04-17 02:23:00,47.5,42.0,29.94,SE,134,1.0,1.0,81,0.00,,,0.00,VWS V14.01,2013-04-17 09:23:00,
2013-04-17 02:24:00,47.5,42.0,29.94,SE,134,1.0,1.0,81,0.00,,,0.00,VWS V14.01,2013-04-17 09:24:00,
2013-04-17 02:25:00,47.4,42.2,29.94,SE,142,1.0,2.0,82,0.00,,,0.00,VWS V14.01,2013-04-17 09:25:00,
2013-04-17 02:26:00,47.4,42.2,29.94,SE,141,1.0,1.0,82,0.00,,,0.00,VWS V14.01,2013-04-17 09:26:00,
2013-04-17 02:27:00,47.3,42.1,29.94,SE,146,1.0,1.0,82,0.00,,,0.00,VWS V14.01,2013-04-17 09:27:00,
2013-04-17 02:28:00,47.3,42.1,29.94,SE,146,0.0,1.0,82,0.00,,,0.00,VWS V14.01,2013-04-17 09:28:00,
2013-04-17 02:29:00,47.3,42.1,29.94,SE,146,0.0,0.0,82,0.00,,,0.00,VWS V14.01,2013-04-17 09:29:00,
2013-04-17 02:30:00,47.2,42.0,29.94,SE,143,1.0,1.0,82,0.00,,,0.00,VWS V14.01,2013-04-17 09:30:00,
2013-04-17 02:31:00,47.2,42.0,29.94,SE,143,1.0,1.0,82,0.00,,,0.00,VWS V14.01,2013-04-17 09:31:00,
2013-04-17 02:32:00,47.2,42.0,29.94,ESE,106,1.0,1.0,82,0.00,,,0.00,VWS V14.01,2013-04-17 09:32:00,
2013-04-17 02:33:00,47.2,42.0,29.94,East,98,0.0,1.0,82,0.00,,,0.00,VWS V14.01,2013-04-17 09:33:00,
2013-04-17 02:34:00,47.2,42.0,29.94,East,98,0.0,1.0,82,0.00,,,0.00,VWS V14.01,2013-04-17 09:34:00,
2013-04-17 02:35:00,47.2,42.0,29.94,East,98,0.0,1.0,82,0.00,,,0.00,VWS V14.01,2013-04-17 09:35:00,
2013-04-17 02:36:00,47.2,42.0,29.94,East,100,0.0,1.0,82,0.00,,,0.00,VWS V14.01,2013-04-17 09:36:00,
2013-04-17 02:37:00,47.2,42.0,29.94,East,100,1.0,1.0,82,0.00,,,0.00,VWS V14.01,2013-04-17 09:37:00,
2013-04-17 02:38:00,47.2,42.0,29.94,ESE,104,1.0,1.0,82,0.00,,,0.00,VWS V14.01,2013-04-17 09:38:00,
2013-04-17 02:39:00,47.1,41.9,29.94,ESE,105,1.0,1.0,82,0.00,,,0.00,VWS V14.01,2013-04-17 09:39:00,
2013-04-17 02:40:00,47.1,41.9,29.94,ESE,105,1.0,1.0,82,0.00,,,0.00,VWS V14.01,2013-04-17 09:40:00,
2013-04-17 02:41:00,47.0,41.8,29.94,ESE,121,0.0,1.0,82,0.00,,,0.00,VWS V14.01,2013-04-17 09:41:00,
2013-04-17 02:42:00,47.0,41.8,29.94,ESE,115,1.0,1.0,82,0.00,,,0.00,VWS V14.01,2013-04-17 09:42:00,
2013-04-17 02:43:00,46.9,41.7,29.94,ESE,109,1.0,1.0,82,0.00,,,0.00,VWS V14.01,2013-04-17 09:43:00,
2013-04-17 02:44:00,46.8,41.6,29.94,ESE,117,2.0,2.0,82,0.00,,,0.00,VWS V14.01,2013-04-17 09:44:00,
2013-04-17 02:45:00,46.8,41.6,29.94,ESE,117,2.0,2.0,82,0.00,,,0.00,VWS V14.01,2013-04-17 09:45:00,
2013-04-17 02:46:00,46.7,41.8,29.94,ESE,103,2.0,2.0,83,0.00,,,0.00,VWS V14.01,2013-04-17 09:46:00,
2013-04-17 02:47:00,46.7,41.8,29.94,ESE,103,2.0,2.0,83,0.00,,,0.00,VWS V14.01,2013-04-17 09:47:00,
2013-04-17 02:48:00,46.7,41.8,29.94,ESE,103,1.0,2.0,83,0.00,,,0.00,VWS V14.01,2013-04-17 09:48:00,
2013-04-17 02:49:00,46.6,41.7,29.94,ESE,103,1.0,1.0,83,0.00,,,0.00,VWS V14.01,2013-04-17 09:49:00,
2013-04-17 02:50:00,46.6,41.7,29.94,ESE,103,1.0,1.0,83,0.00,,,0.00,VWS V14.01,2013-04-17 09:50:00,
2013-04-17 02:51:00,46.6,41.7,29.94,ESE,103,1.0,1.0,83,0.00,,,0.00,VWS V14.01,2013-04-17 09:51:00,
2013-04-17 02:52:00,46.6,41.7,29.94,ESE,103,1.0,1.0,83,0.00,,,0.00,VWS V14.01,2013-04-17 09:52:00,
2013-04-17 02:53:00,46.6,41.7,29.94,ESE,120,1.0,1.0,83,0.00,,,0.00,VWS V14.01,2013-04-17 09:53:00,
2013-04-17 02:54:00,46.5,41.6,29.94,ESE,120,1.0,1.0,83,0.00,,,0.00,VWS V14.01,2013-04-17 09:54:00,
2013-04-17 02:55:00,46.6,41.7,29.94,ESE,107,1.0,1.0,83,0.00,,,0.00,VWS V14.01,2013-04-17 09:55:00,
2013-04-17 02:56:00,46.6,41.4,29.94,ESE,107,1.0,1.0,82,0.00,,,0.00,VWS V14.01,2013-04-17 09:56:00,
2013-04-17 02:57:00,46.6,41.4,29.94,ESE,107,0.0,1.0,82,0.00,,,0.00,VWS V14.01,2013-04-17 09:57:00,
2013-04-17 02:58:00,46.6,41.4,29.94,ESE,108,0.0,0.0,82,0.00,,,0.00,VWS V14.01,2013-04-17 09:58:00,
2013-04-17 02:59:00,46.6,41.4,29.94,ESE,108,1.0,1.0,82,0.00,,,0.00,VWS V14.01,2013-04-17 09:59:00,
2013-04-17 03:00:00,46.6,41.4,29.94,ESE,108,1.0,1.0,82,0.00,,,0.00,VWS V14.01,2013-04-17 10:00:00,
2013-04-17 03:01:00,46.7,41.2,29.94,SE,131,2.0,2.0,81,0.00,,,0.00,VWS V14.01,2013-04-17 10:01:00,
2013-04-17 03:02:00,46.7,41.2,29.94,SE,131,2.0,2.0,81,0.00,,,0.00,VWS V14.01,2013-04-17 10:02:00,
2013-04-17 03:03:00,46.8,41.3,29.94,SE,144,0.0,1.0,81,0.00,,,0.00,VWS V14.01,2013-04-17 10:03:00,
2013-04-17 03:04:00,46.8,41.3,29.94,SE,143,0.0,1.0,81,0.00,,,0.00,VWS V14.01,2013-04-17 10:04:00,
2013-04-17 03:05:00,46.8,41.0,29.94,SE,144,1.0,1.0,80,0.00,,,0.00,VWS V14.01,2013-04-17 10:05:00,
2013-04-17 03:06:00,46.8,41.0,29.94,SE,143,1.0,1.0,80,0.00,,,0.00,VWS V14.01,2013-04-17 10:06:00,
2013-04-17 03:07:00,46.8,41.0,29.94,East,97,1.0,2.0,80,0.00,,,0.00,VWS V14.01,2013-04-17 10:07:00,
2013-04-17 03:08:00,46.8,41.0,29.94,East,97,1.0,2.0,80,0.00,,,0.00,VWS V14.01,2013-04-17 10:08:00,
2013-04-17 03:09:00,46.8,40.6,29.94,East,98,1.0,1.0,79,0.00,,,0.00,VWS V14.01,2013-04-17 10:09:00,
2013-04-17 03:10:00,46.9,40.7,29.94,ESE,120,1.0,2.0,79,0.00,,,0.00,VWS V14.01,2013-04-17 10:10:00,
2013-04-17 03:11:00,46.9,40.4,29.94,ESE,111,1.0,2.0,78,0.00,,,0.00,VWS V14.01,2013-04-17 10:11:00,
2013-04-17 03:12:00,47.0,40.5,29.94,ESE,109,2.0,2.0,78,0.00,,,0.00,VWS V14.01,2013-04-17 10:12:00,
2013-04-17 03:13:00,47.1,40.6,29.94,ESE,114,1.0,2.0,78,0.00,,,0.00,VWS V14.01,2013-04-17 10:13:00,
2013-04-17 03:14:00,47.1,40.6,29.95,ESE,111,1.0,1.0,78,0.00,,,0.00,VWS V14.01,2013-04-17 10:14:00,
2013-04-17 03:15:00,47.0,40.5,29.95,ESE,105,1.0,1.0,78,0.00,,,0.00,VWS V14.01,2013-04-17 10:15:00,
2013-04-17 03:16:00,47.0,40.5,29.94,ESE,120,2.0,2.0,78,0.00,,,0.00,VWS V14.01,2013-04-17 10:16:00,
2013-04-17 03:17:00,47.0,40.5,29.94,ESE,121,1.0,2.0,78,0.00,,,0.00,VWS V14.01,2013-04-17 10:17:00,
2013-04-17 03:18:00,47.0,40.5,29.94,SE,136,2.0,2.0,78,0.00,,,0.00,VWS V14.01,2013-04-17 10:18:00,
2013-04-17 03:19:00,47.0,40.2,29.94,SE,141,1.0,1.0,77,0.00,,,0.00,VWS V14.01,2013-04-17 10:19:00,
2013-04-17 03:20:00,47.0,40.2,29.94,SE,141,0.0,1.0,77,0.00,,,0.00,VWS V14.01,2013-04-17 10:20:00,
2013-04-17 03:21:00,47.0,40.2,29.95,SE,141,0.0,1.0,77,0.00,,,0.00,VWS V14.01,2013-04-17 10:21:00,
2013-04-17 03:22:00,47.0,40.2,29.95,SE,141,0.0,0.0,77,0.00,,,0.00,VWS V14.01,2013-04-17 10:22:00,
2013-04-17 03:23:00,47.0,40.2,29.95,SE,141,0.0,0.0,77,0.00,,,0.00,VWS V14.01,2013-04-17 10:23:00,
2013-04-17 03:24:00,47.0,40.2,29.95,SE,141,0.0,0.0,77,0.00,,,0.00,VWS V14.01,2013-04-17 10:24:00,
2013-04-17 03:25:00,46.9,40.1,29.95,SE,141,0.0,0.0,77,0.00,,,0.00,VWS V14.01,2013-04-17 10:25:00,
2013-04-17 03:26:00,47.0,39.8,29.94,SE,139,1.0,1.0,76,0.00,,,0.00,VWS V14.01,2013-04-17 10:26:00,
2013-04-17 03:27:00,47.0,39.8,29.94,SE,141,0.0,0.0,76,0.00,,,0.00,VWS V14.01,2013-04-17 10:27:00,
2013-04-17 03:28:00,46.9,39.7,29.95,SE,141,1.0,1.0,76,0.00,,,0.00,VWS V14.01,2013-04-17 10:28:00,
2013-04-17 03:29:00,46.9,39.7,29.95,SE,141,0.0,1.0,76,0.00,,,0.00,VWS V14.01,2013-04-17 10:29:00,
2013-04-17 03:30:00,46.9,39.7,29.95,SE,141,0.0,0.0,76,0.00,,,0.00,VWS V14.01,2013-04-17 10:30:00,
2013-04-17 03:31:00,46.8,39.7,29.95,SE,141,0.0,0.0,76,0.00,,,0.00,VWS V14.01,2013-04-17 10:31:00,
2013-04-17 03:32:00,46.7,39.5,29.95,SE,141,0.0,0.0,76,0.00,,,0.00,VWS V14.01,2013-04-17 10:32:00,
2013-04-17 03:33:00,46.7,39.5,29.95,SE,141,0.0,0.0,76,0.00,,,0.00,VWS V14.01,2013-04-17 10:33:00,
2013-04-17 03:34:00,46.7,39.5,29.94,SE,141,0.0,0.0,76,0.00,,,0.00,VWS V14.01,2013-04-17 10:34:00,
2013-04-17 03:35:00,46.6,39.5,29.94,SE,141,0.0,0.0,76,0.00,,,0.00,VWS V14.01,2013-04-17 10:35:00,
2013-04-17 03:36:00,46.6,39.5,29.94,SE,141,0.0,0.0,76,0.00,,,0.00,VWS V14.01,2013-04-17 10:36:00,
2013-04-17 03:37:00,46.6,39.5,29.94,SE,141,0.0,0.0,76,0.00,,,0.00,VWS V14.01,2013-04-17 10:37:00,
2013-04-17 03:38:00,46.6,39.5,29.94,SE,141,0.0,1.0,76,0.00,,,0.00,VWS V14.01,2013-04-17 10:38:00,
2013-04-17 03:39:00,46.6,39.5,29.94,SE,141,0.0,0.0,76,0.00,,,0.00,VWS V14.01,2013-04-17 10:39:00,
2013-04-17 03:40:00,46.5,39.7,29.94,SE,136,0.0,1.0,77,0.00,,,0.00,VWS V14.01,2013-04-17 10:40:00,
2013-04-17 03:41:00,46.5,39.7,29.94,SE,136,1.0,1.0,77,0.00,,,0.00,VWS V14.01,2013-04-17 10:41:00,
2013-04-17 03:42:00,46.5,39.4,29.94,SE,136,0.0,0.0,76,0.00,,,0.00,VWS V14.01,2013-04-17 10:42:00,
2013-04-17 03:43:00,46.4,39.3,29.94,WSW,242,0.0,1.0,76,0.00,,,0.00,VWS V14.01,2013-04-17 10:43:00,
2013-04-17 03:44:00,46.4,39.6,29.94,WSW,242,0.0,0.0,77,0.00,,,0.00,VWS V14.01,2013-04-17 10:44:00,
2013-04-17 03:45:00,46.3,39.5,29.94,ESE,120,1.0,1.0,77,0.00,,,0.00,VWS V14.01,2013-04-17 10:45:00,
2013-04-17 03:46:00,46.3,39.5,29.94,SSW,213,0.0,1.0,77,0.00,,,0.00,VWS V14.01,2013-04-17 10:46:00,
2013-04-17 03:47:00,46.3,39.5,29.94,ESE,120,1.0,1.0,77,0.00,,,0.00,VWS V14.01,2013-04-17 10:47:00,
2013-04-17 03:48:00,46.2,39.4,29.94,East,93,0.0,1.0,77,0.00,,,0.00,VWS V14.01,2013-04-17 10:48:00,
2013-04-17 03:49:00,46.2,39.4,29.94,East,93,0.0,1.0,77,0.00,,,0.00,VWS V14.01,2013-04-17 10:49:00,
2013-04-17 03:50:00,46.2,39.7,29.94,East,88,1.0,1.0,78,0.00,,,0.00,VWS V14.01,2013-04-17 10:50:00,
2013-04-17 03:51:00,46.1,39.6,29.94,East,87,1.0,1.0,78,0.00,,,0.00,VWS V14.01,2013-04-17 10:51:00,
2013-04-17 03:52:00,46.1,39.6,29.94,East,87,1.0,1.0,78,0.00,,,0.00,VWS V14.01,2013-04-17 10:52:00,
2013-04-17 03:53:00,46.0,39.5,29.94,East,84,1.0,1.0,78,0.00,,,0.00,VWS V14.01,2013-04-17 10:53:00,
2013-04-17 03:54:00,46.0,39.5,29.94,East,84,0.0,1.0,78,0.00,,,0.00,VWS V14.01,2013-04-17 10:54:00,
2013-04-17 03:55:00,46.0,39.5,29.94,East,84,1.0,1.0,78,0.00,,,0.00,VWS V14.01,2013-04-17 10:55:00,
2013-04-17 03:56:00,45.9,39.8,29.94,East,97,1.0,1.0,79,0.00,,,0.00,VWS V14.01,2013-04-17 10:56:00,
2013-04-17 03:57:00,45.9,39.8,29.94,East,97,1.0,1.0,79,0.00,,,0.00,VWS V14.01,2013-04-17 10:57:00,
2013-04-17 03:58:00,45.9,39.8,29.94,East,97,1.0,1.0,79,0.00,,,0.00,VWS V14.01,2013-04-17 10:58:00,
2013-04-17 03:59:00,45.8,39.7,29.94,East,97,0.0,0.0,79,0.00,,,0.00,VWS V14.01,2013-04-17 10:59:00,
2013-04-17 04:00:00,45.8,39.7,29.94,East,97,0.0,0.0,79,0.00,,,0.00,VWS V14.01,2013-04-17 11:00:00,
2013-04-17 04:01:00,45.7,39.9,29.94,East,97,1.0,1.0,80,0.00,,,0.00,VWS V14.01,2013-04-17 11:01:00,
2013-04-17 04:02:00,45.7,39.9,29.94,ESE,113,1.0,1.0,80,0.00,,,0.00,VWS V14.01,2013-04-17 11:02:00,
2013-04-17 04:03:00,45.7,39.9,29.94,ESE,113,1.0,1.0,80,0.00,,,0.00,VWS V14.01,2013-04-17 11:03:00,
2013-04-17 04:04:00,45.7,39.9,29.94,ESE,113,1.0,1.0,80,0.00,,,0.00,VWS V14.01,2013-04-17 11:04:00,
2013-04-17 04:05:00,45.7,39.9,29.94,ESE,113,1.0,1.0,80,0.00,,,0.00,VWS V14.01,2013-04-17 11:05:00,
2013-04-17 04:06:00,45.7,39.9,29.94,ESE,113,0.0,1.0,80,0.00,,,0.00,VWS V14.01,2013-04-17 11:06:00,
2013-04-17 04:07:00,45.7,39.9,29.94,ESE,113,0.0,1.0,80,0.00,,,0.00,VWS V14.01,2013-04-17 11:07:00,
2013-04-17 04:08:00,45.6,39.8,29.94,ESE,113,0.0,1.0,80,0.00,,,0.00,VWS V14.01,2013-04-17 11:08:00,
2013-04-17 04:09:00,45.7,39.9,29.94,ESE,113,0.0,0.0,80,0.00,,,0.00,VWS V14.01,2013-04-17 11:09:00,
2013-04-17 04:10:00,45.7,39.6,29.94,ESE,105,1.0,1.0,79,0.00,,,0.00,VWS V14.01,2013-04-17 11:10:00,
2013-04-17 04:11:00,45.7,39.6,29.94,ESE,106,1.0,1.0,79,0.00,,,0.00,VWS V14.01,2013-04-17 11:11:00,
2013-04-17 04:12:00,45.8,39.3,29.94,ESE,105,1.0,1.0,78,0.00,,,0.00,VWS V14.01,2013-04-17 11:12:00,
2013-04-17 04:13:00,45.9,39.1,29.94,ESE,113,1.0,2.0,77,0.00,,,0.00,VWS V14.01,2013-04-17 11:13:00,
2013-04-17 04:14:00,46.0,39.2,29.94,ESE,113,1.0,1.0,77,0.00,,,0.00,VWS V14.01,2013-04-17 11:14:00,
2013-04-17 04:15:00,46.0,39.2,29.94,ESE,113,1.0,1.0,77,0.00,,,0.00,VWS V14.01,2013-04-17 11:15:00,
2013-04-17 04:16:00,46.0,39.2,29.94,ESE,113,1.0,1.0,77,0.00,,,0.00,VWS V14.01,2013-04-17 11:16:00,
2013-04-17 04:17:00,46.0,39.2,29.95,ESE,113,0.0,1.0,77,0.00,,,0.00,VWS V14.01,2013-04-17 11:17:00,
2013-04-17 04:18:00,46.0,39.2,29.95,ESE,113,0.0,1.0,77,0.00,,,0.00,VWS V14.01,2013-04-17 11:18:00,
2013-04-17 04:19:00,45.9,39.1,29.94,East,84,1.0,2.0,77,0.00,,,0.00,VWS V14.01,2013-04-17 11:19:00,
2013-04-17 04:20:00,45.9,39.1,29.94,East,84,1.0,2.0,77,0.00,,,0.00,VWS V14.01,2013-04-17 11:20:00,
2013-04-17 04:21:00,45.8,39.0,29.95,East,83,2.0,2.0,77,0.00,,,0.00,VWS V14.01,2013-04-17 11:21:00,
2013-04-17 04:22:00,45.8,39.0,29.95,ENE,71,1.0,2.0,77,0.00,,,0.00,VWS V14.01,2013-04-17 11:22:00,
2013-04-17 04:23:00,45.8,39.0,29.95,East,94,0.0,2.0,77,0.00,,,0.00,VWS V14.01,2013-04-17 11:23:00,
2013-04-17 04:24:00,45.8,39.0,29.95,East,97,0.0,0.0,77,0.00,,,0.00,VWS V14.01,2013-04-17 11:24:00,
2013-04-17 04:25:00,45.8,39.0,29.95,East,97,0.0,0.0,77,0.00,,,0.00,VWS V14.01,2013-04-17 11:25:00,
2013-04-17 04:26:00,45.8,39.0,29.95,East,100,2.0,2.0,77,0.00,,,0.00,VWS V14.01,2013-04-17 11:26:00,
2013-04-17 04:27:00,45.8,39.0,29.95,East,101,1.0,1.0,77,0.00,,,0.00,VWS V14.01,2013-04-17 11:27:00,
2013-04-17 04:28:00,45.8,39.0,29.95,ENE,77,2.0,2.0,77,0.00,,,0.00,VWS V14.01,2013-04-17 11:28:00,
2013-04-17 04:29:00,45.7,38.9,29.95,East,84,0.0,1.0,77,0.00,,,0.00,VWS V14.01,2013-04-17 11:29:00,
2013-04-17 04:30:00,45.7,38.9,29.95,SE,141,0.0,0.0,77,0.00,,,0.00,VWS V14.01,2013-04-17 11:30:00,
2013-04-17 04:31:00,45.7,38.9,29.95,SE,141,0.0,0.0,77,0.00,,,0.00,VWS V14.01,2013-04-17 11:31:00,
2013-04-17 04:32:00,45.5,38.7,29.96,SE,139,1.0,1.0,77,0.00,,,0.00,VWS V14.01,2013-04-17 11:32:00,
2013-04-17 04:33:00,45.5,38.7,29.96,SE,139,1.0,1.0,77,0.00,,,0.00,VWS V14.01,2013-04-17 11:33:00,
2013-04-17 04:34:00,45.5,38.7,29.96,SE,136,1.0,1.0,77,0.00,,,0.00,VWS V14.01,2013-04-17 11:34:00,
2013-04-17 04:35:00,45.4,38.6,29.96,SE,136,1.0,1.0,77,0.00,,,0.00,VWS V14.01,2013-04-17 11:35:00,
2013-04-17 04:36:00,45.4,39.0,29.95,SE,138,0.0,0.0,78,0.00,,,0.00,VWS V14.01,2013-04-17 11:36:00,
2013-04-17 04:37:00,45.3,38.9,29.96,SE,139,0.0,0.0,78,0.00,,,0.00,VWS V14.01,2013-04-17 11:37:00,
2013-04-17 04:38:00,45.3,38.9,29.96,SE,139,0.0,0.0,78,0.00,,,0.00,VWS V14.01,2013-04-17 11:38:00,
2013-04-17 04:39:00,45.3,38.9,29.95,SE,138,0.0,1.0,78,0.00,,,0.00,VWS V14.01,2013-04-17 11:39:00,
2013-04-17 04:40:00,45.2,38.8,29.96,SE,138,1.0,1.0,78,0.00,,,0.00,VWS V14.01,2013-04-17 11:40:00,
2013-04-17 04:41:00,45.1,38.7,29.96,SE,136,1.0,1.0,78,0.00,,,0.00,VWS V14.01,2013-04-17 11:41:00,
2013-04-17 04:42:00,45.1,38.7,29.96,SE,136,0.0,1.0,78,0.00,,,0.00,VWS V14.01,2013-04-17 11:42:00,
2013-04-17 04:43:00,45.1,38.7,29.96,SE,136,0.0,1.0,78,0.00,,,0.00,VWS V14.01,2013-04-17 11:43:00,
2013-04-17 04:44:00,45.1,38.7,29.96,SE,138,0.0,0.0,78,0.00,,,0.00,VWS V14.01,2013-04-17 11:44:00,
2013-04-17 04:45:00,45.1,38.7,29.96,SE,138,0.0,0.0,78,0.00,,,0.00,VWS V14.01,2013-04-17 11:45:00,
2013-04-17 04:46:00,45.1,38.7,29.96,SE,136,1.0,1.0,78,0.00,,,0.00,VWS V14.01,2013-04-17 11:46:00,
2013-04-17 04:47:00,45.2,38.8,29.96,SE,138,0.0,0.0,78,0.00,,,0.00,VWS V14.01,2013-04-17 11:47:00,
2013-04-17 04:48:00,45.1,38.7,29.96,SE,138,0.0,0.0,78,0.00,,,0.00,VWS V14.01,2013-04-17 11:48:00,
2013-04-17 04:49:00,45.1,38.7,29.96,SE,139,0.0,0.0,78,0.00,,,0.00,VWS V14.01,2013-04-17 11:49:00,
2013-04-17 04:50:00,45.1,38.7,29.96,SE,139,0.0,0.0,78,0.00,,,0.00,VWS V14.01,2013-04-17 11:50:00,
2013-04-17 04:51:00,45.1,38.7,29.96,SE,138,0.0,0.0,78,0.00,,,0.00,VWS V14.01,2013-04-17 11:51:00,
2013-04-17 04:52:00,45.2,38.4,29.96,SE,136,1.0,1.0,77,0.00,,,0.00,VWS V14.01,2013-04-17 11:52:00,
2013-04-17 04:53:00,45.2,38.4,29.96,SE,136,0.0,1.0,77,0.00,,,0.00,VWS V14.01,2013-04-17 11:53:00,
2013-04-17 04:54:00,45.2,38.4,29.96,SE,136,0.0,1.0,77,0.00,,,0.00,VWS V14.01,2013-04-17 11:54:00,
2013-04-17 04:55:00,45.3,38.5,29.96,SE,136,0.0,0.0,77,0.00,,,0.00,VWS V14.01,2013-04-17 11:55:00,
2013-04-17 04:56:00,45.3,38.5,29.96,SE,137,0.0,0.0,77,0.00,,,0.00,VWS V14.01,2013-04-17 11:56:00,
2013-04-17 04:57:00,45.3,38.5,29.96,SE,136,0.0,0.0,77,0.00,,,0.00,VWS V14.01,2013-04-17 11:57:00,
2013-04-17 04:58:00,45.3,38.5,29.96,SE,136,1.0,1.0,77,0.00,,,0.00,VWS V14.01,2013-04-17 11:58:00,
2013-04-17 04:59:00,45.3,38.5,29.96,SE,136,1.0,1.0,77,0.00,,,0.00,VWS V14.01,2013-04-17 11:59:00,
2013-04-17 05:00:00,45.3,38.5,29.96,SE,138,0.0,0.0,77,0.00,,,0.00,VWS V14.01,2013-04-17 12:00:00,
2013-04-17 05:01:00,45.3,38.5,29.96,SE,138,0.0,0.0,77,0.00,,,0.00,VWS V14.01,2013-04-17 12:01:00,
2013-04-17 05:02:00,45.3,38.5,29.96,SE,136,1.0,1.0,77,0.00,,,0.00,VWS V14.01,2013-04-17 12:02:00,
2013-04-17 05:03:00,45.3,38.5,29.96,SE,136,1.0,1.0,77,0.00,,,0.00,VWS V14.01,2013-04-17 12:03:00,
2013-04-17 05:04:00,45.3,38.5,29.96,SE,136,0.0,1.0,77,0.00,,,0.00,VWS V14.01,2013-04-17 12:04:00,
2013-04-17 05:05:00,45.3,38.5,29.96,SE,136,1.0,1.0,77,0.00,,,0.00,VWS V14.01,2013-04-17 12:05:00,
2013-04-17 05:06:00,45.3,38.5,29.96,SE,136,1.0,1.0,77,0.00,,,0.00,VWS V14.01,2013-04-17 12:06:00,
2013-04-17 05:07:00,45.3,38.2,29.96,SE,124,1.0,1.0,76,0.00,,,0.00,VWS V14.01,2013-04-17 12:07:00,
2013-04-17 05:08:00,45.3,38.5,29.96,SE,124,0.0,1.0,77,0.00,,,0.00,VWS V14.01,2013-04-17 12:08:00,
2013-04-17 05:09:00,45.3,38.5,29.96,ESE,122,1.0,1.0,77,0.00,,,0.00,VWS V14.01,2013-04-17 12:09:00,
2013-04-17 05:10:00,45.3,38.5,29.96,SE,124,1.0,1.0,77,0.00,,,0.00,VWS V14.01,2013-04-17 12:10:00,
2013-04-17 05:11:00,45.3,38.5,29.96,ESE,122,0.0,1.0,77,0.00,,,0.00,VWS V14.01,2013-04-17 12:11:00,
2013-04-17 05:12:00,45.2,38.4,29.96,ESE,123,0.0,1.0,77,0.00,,,0.00,VWS V14.01,2013-04-17 12:12:00,
2013-04-17 05:13:00,45.1,38.3,29.96,North,350,1.0,1.0,77,0.00,,,0.00,VWS V14.01,2013-04-17 12:13:00,
2013-04-17 05:14:00,45.1,38.3,29.96,WSW,245,1.0,1.0,77,0.00,,,0.00,VWS V14.01,2013-04-17 12:14:00,
2013-04-17 05:15:00,45.1,38.3,29.96,North,349,0.0,1.0,77,0.00,,,0.00,VWS V14.01,2013-04-17 12:15:00,
2013-04-17 05:16:00,45.0,38.2,29.96,WSW,244,0.0,1.0,77,0.00,,,0.00,VWS V14.01,2013-04-17 12:16:00,
2013-04-17 05:17:00,44.8,38.0,29.96,WSW,244,0.0,0.0,77,0.00,,,0.00,VWS V14.01,2013-04-17 12:17:00,
2013-04-17 05:18:00,44.7,37.9,29.96,WSW,245,1.0,1.0,77,0.00,,,0.00,VWS V14.01,2013-04-17 12:18:00,
2013-04-17 05:19:00,44.7,37.9,29.96,WSW,244,1.0,1.0,77,0.00,,,0.00,VWS V14.01,2013-04-17 12:19:00,
2013-04-17 05:20:00,44.8,38.0,29.97,WSW,244,0.0,1.0,77,0.00,,,0.00,VWS V14.01,2013-04-17 12:20:00,
2013-04-17 05:21:00,44.8,38.0,29.97,WSW,245,0.0,1.0,77,0.00,,,0.00,VWS V14.01,2013-04-17 12:21:00,
2013-04-17 05:22:00,44.8,38.0,29.97,WSW,244,0.0,1.0,77,0.00,,,0.00,VWS V14.01,2013-04-17 12:22:00,
2013-04-17 05:23:00,44.8,38.0,29.97,SE,131,1.0,1.0,77,0.00,,,0.00,VWS V14.01,2013-04-17 12:23:00,
2013-04-17 05:24:00,44.8,38.0,29.97,East,83,0.0,1.0,77,0.00,,,0.00,VWS V14.01,2013-04-17 12:24:00,
2013-04-17 05:25:00,44.8,38.0,29.97,East,83,0.0,0.0,77,0.00,,,0.00,VWS V14.01,2013-04-17 12:25:00,
2013-04-17 05:26:00,44.8,38.0,29.97,East,83,0.0,0.0,77,0.00,,,0.00,VWS V14.01,2013-04-17 12:26:00,
2013-04-17 05:27:00,44.7,37.9,29.97,East,83,1.0,1.0,77,0.00,,,0.00,VWS V14.01,2013-04-17 12:27:00,
2013-04-17 05:28:00,44.7,37.9,29.97,East,84,0.0,1.0,77,0.00,,,0.00,VWS V14.01,2013-04-17 12:28:00,
2013-04-17 05:29:00,44.5,37.8,29.97,NW,307,0.0,0.0,77,0.00,,,0.00,VWS V14.01,2013-04-17 12:29:00,
2013-04-17 05:30:00,44.6,37.8,29.97,NW,307,0.0,0.0,77,0.00,,,0.00,VWS V14.01,2013-04-17 12:30:00,
2013-04-17 05:31:00,44.4,37.7,29.97,NW,306,0.0,0.0,77,0.00,,,0.00,VWS V14.01,2013-04-17 12:31:00,
2013-04-17 05:32:00,44.5,37.8,29.97,NW,306,0.0,0.0,77,0.00,,,0.00,VWS V14.01,2013-04-17 12:32:00,
2013-04-17 05:33:00,44.4,37.7,29.97,ENE,70,2.0,2.0,77,0.00,,,0.00,VWS V14.01,2013-04-17 12:33:00,
2013-04-17 05:34:00,44.4,37.7,29.97,ENE,75,2.0,2.0,77,0.00,,,0.00,VWS V14.01,2013-04-17 12:34:00,
2013-04-17 05:35:00,44.5,37.4,29.97,ENE,68,1.0,3.0,76,0.00,,,0.00,VWS V14.01,2013-04-17 12:35:00,
2013-04-17 05:36:00,44.5,37.4,29.97,ENE,73,1.0,1.0,76,0.00,,,0.00,VWS V14.01,2013-04-17 12:36:00,
2013-04-17 05:37:00,44.5,37.4,29.97,East,98,1.0,1.0,76,0.00,,,0.00,VWS V14.01,2013-04-17 12:37:00,
2013-04-17 05:38:00,44.5,37.4,29.97,ESE,106,1.0,1.0,76,0.00,,,0.00,VWS V14.01,2013-04-17 12:38:00,
2013-04-17 05:39:00,44.5,37.4,29.97,ESE,106,1.0,1.0,76,0.00,,,0.00,VWS V14.01,2013-04-17 12:39:00,
2013-04-17 05:40:00,44.5,37.4,29.97,ESE,122,1.0,1.0,76,0.00,,,0.00,VWS V14.01,2013-04-17 12:40:00,
2013-04-17 05:41:00,44.6,37.5,29.97,ESE,113,1.0,2.0,76,0.00,,,0.00,VWS V14.01,2013-04-17 12:41:00,
2013-04-17 05:42:00,44.6,37.5,29.97,ESE,113,1.0,2.0,76,0.00,,,0.00,VWS V14.01,2013-04-17 12:42:00,
2013-04-17 05:43:00,44.7,37.6,29.97,SSE,148,0.0,1.0,76,0.00,,,0.00,VWS V14.01,2013-04-17 12:43:00,
2013-04-17 05:44:00,44.7,37.6,29.97,SSE,148,0.0,1.0,76,0.00,,,0.00,VWS V14.01,2013-04-17 12:44:00,
2013-04-17 05:45:00,44.7,37.3,29.97,SSE,150,0.0,2.0,75,0.00,,,0.00,VWS V14.01,2013-04-17 12:45:00,
2013-04-17 05:46:00,44.7,37.3,29.97,SSE,150,1.0,2.0,75,0.00,,,0.00,VWS V14.01,2013-04-17 12:46:00,
2013-04-17 05:47:00,44.7,37.3,29.97,SE,138,0.0,1.0,75,0.00,,,0.00,VWS V14.01,2013-04-17 12:47:00,
2013-04-17 05:48:00,44.8,37.0,29.97,ESE,115,1.0,2.0,74,0.00,,,0.00,VWS V14.01,2013-04-17 12:48:00,
2013-04-17 05:49:00,44.8,37.0,29.97,ESE,115,1.0,1.0,74,0.00,,,0.00,VWS V14.01,2013-04-17 12:49:00,
2013-04-17 05:50:00,44.9,37.1,29.97,ESE,114,1.0,1.0,74,0.00,,,0.00,VWS V14.01,2013-04-17 12:50:00,
2013-04-17 05:51:00,45.0,36.9,29.97,ESE,115,1.0,1.0,73,0.00,,,0.00,VWS V14.01,2013-04-17 12:51:00,
2013-04-17 05:52:00,45.1,37.0,29.97,ESE,115,0.0,1.0,73,0.00,,,0.00,VWS V14.01,2013-04-17 12:52:00,
2013-04-17 05:53:00,45.3,36.8,29.97,ESE,114,1.0,1.0,72,0.00,,,0.00,VWS V14.01,2013-04-17 12:53:00,
2013-04-17 05:54:00,45.3,36.8,29.97,ESE,114,1.0,1.0,72,0.00,,,0.00,VWS V14.01,2013-04-17 12:54:00,
2013-04-17 05:55:00,45.4,36.6,29.97,ESE,114,1.0,1.0,71,0.00,,,0.00,VWS V14.01,2013-04-17 12:55:00,
2013-04-17 05:56:00,45.5,36.7,29.97,ESE,110,0.0,1.0,71,0.00,,,0.00,VWS V14.01,2013-04-17 12:56:00,
2013-04-17 05:57:00,45.6,36.8,29.98,ESE,110,0.0,0.0,71,0.00,,,0.00,VWS V14.01,2013-04-17 12:57:00,
2013-04-17 05:58:00,45.6,36.8,29.98,ESE,110,0.0,0.0,71,0.00,,,0.00,VWS V14.01,2013-04-17 12:58:00,
2013-04-17 05:59:00,45.6,36.8,29.98,ESE,111,0.0,0.0,71,0.00,,,0.00,VWS V14.01,2013-04-17 12:59:00,
2013-04-17 06:00:00,45.6,36.8,29.98,ESE,111,0.0,1.0,71,0.00,,,0.00,VWS V14.01,2013-04-17 13:00:00,
2013-04-17 06:01:00,45.4,36.6,29.98,ESE,112,0.0,1.0,71,0.00,,,0.00,VWS V14.01,2013-04-17 13:01:00,
2013-04-17 06:02:00,45.4,36.6,29.98,ESE,111,0.0,0.0,71,0.00,,,0.00,VWS V14.01,2013-04-17 13:02:00,
2013-04-17 06:03:00,45.2,36.7,29.98,ESE,111,0.0,1.0,72,0.00,,,0.00,VWS V14.01,2013-04-17 13:03:00,
2013-04-17 06:04:00,45.1,36.6,29.98,ESE,111,0.0,1.0,72,0.00,,,0.00,VWS V14.01,2013-04-17 13:04:00,
2013-04-17 06:05:00,45.2,36.7,29.98,ESE,112,0.0,0.0,72,0.00,,,0.00,VWS V14.01,2013-04-17 13:05:00,
2013-04-17 06:06:00,45.1,36.6,29.98,ESE,112,0.0,0.0,72,0.00,,,0.00,VWS V14.01,2013-04-17 13:06:00,
2013-04-17 06:07:00,44.9,36.4,29.98,ESE,112,0.0,0.0,72,0.00,,,0.00,VWS V14.01,2013-04-17 13:07:00,
2013-04-17 06:08:00,44.9,36.4,29.98,ESE,112,0.0,0.0,72,0.00,,,0.00,VWS V14.01,2013-04-17 13:08:00,
2013-04-17 06:09:00,44.7,36.9,29.98,ESE,111,0.0,1.0,74,0.00,,,0.00,VWS V14.01,2013-04-17 13:09:00,
2013-04-17 06:10:00,44.7,36.9,29.98,ESE,111,0.0,0.0,74,0.00,,,0.00,VWS V14.01,2013-04-17 13:10:00,
2013-04-17 06:11:00,44.7,36.9,29.98,ESE,111,0.0,1.0,74,0.00,,,0.00,VWS V14.01,2013-04-17 13:11:00,
2013-04-17 06:12:00,44.6,37.2,29.98,ESE,111,0.0,0.0,75,0.00,,,0.00,VWS V14.01,2013-04-17 13:12:00,
2013-04-17 06:13:00,44.6,37.2,29.98,ESE,111,0.0,0.0,75,0.00,,,0.00,VWS V14.01,2013-04-17 13:13:00,
2013-04-17 06:14:00,44.6,37.2,29.98,ESE,111,1.0,1.0,75,0.00,,,0.00,VWS V14.01,2013-04-17 13:14:00,
2013-04-17 06:15:00,44.6,37.2,29.98,ESE,112,1.0,1.0,75,0.00,,,0.00,VWS V14.01,2013-04-17 13:15:00,
2013-04-17 06:16:00,44.5,37.4,29.98,ESE,112,0.0,0.0,76,0.00,,,0.00,VWS V14.01,2013-04-17 13:16:00,
2013-04-17 06:17:00,44.5,37.4,29.98,ESE,111,0.0,1.0,76,0.00,,,0.00,VWS V14.01,2013-04-17 13:17:00,
2013-04-17 06:18:00,44.5,37.4,29.98,ESE,111,1.0,1.0,76,0.00,,,0.00,VWS V14.01,2013-04-17 13:18:00,
2013-04-17 06:19:00,44.5,37.4,29.98,ESE,111,1.0,1.0,76,0.00,,,0.00,VWS V14.01,2013-04-17 13:19:00,
2013-04-17 06:20:00,44.5,37.4,29.98,ESE,111,1.0,1.0,76,0.00,,,0.00,VWS V14.01,2013-04-17 13:20:00,
2013-04-17 06:21:00,44.5,37.4,29.98,ESE,114,1.0,1.0,76,0.00,,,0.00,VWS V14.01,2013-04-17 13:21:00,
2013-04-17 06:22:00,44.5,37.4,29.98,ESE,114,0.0,0.0,76,0.00,,,0.00,VWS V14.01,2013-04-17 13:22:00,
2013-04-17 06:23:00,44.5,37.4,29.98,ESE,114,0.0,0.0,76,0.00,,,0.00,VWS V14.01,2013-04-17 13:23:00,
2013-04-17 06:24:00,44.5,37.4,29.98,ESE,114,0.0,0.0,76,0.00,,,0.00,VWS V14.01,2013-04-17 13:24:00,
2013-04-17 06:25:00,44.4,37.3,29.98,ESE,115,0.0,1.0,76,0.00,,,0.00,VWS V14.01,2013-04-17 13:25:00,
2013-04-17 06:26:00,44.4,37.3,29.98,ESE,115,0.0,1.0,76,0.00,,,0.00,VWS V14.01,2013-04-17 13:26:00,
2013-04-17 06:27:00,44.4,37.3,29.98,ESE,114,0.0,0.0,76,0.00,,,0.00,VWS V14.01,2013-04-17 13:27:00,
2013-04-17 06:28:00,44.4,37.3,29.98,ESE,114,0.0,0.0,76,0.00,,,0.00,VWS V14.01,2013-04-17 13:28:00,
2013-04-17 06:29:00,44.4,37.0,29.98,ESE,115,0.0,0.0,75,0.00,,,0.00,VWS V14.01,2013-04-17 13:29:00,
2013-04-17 06:30:00,44.4,37.0,29.98,ESE,114,0.0,0.0,75,0.00,,,0.00,VWS V14.01,2013-04-17 13:30:00,
2013-04-17 06:31:00,44.4,37.0,29.98,ESE,114,0.0,0.0,75,0.00,,,0.00,VWS V14.01,2013-04-17 13:31:00,
2013-04-17 06:32:00,44.4,37.0,29.98,ESE,114,0.0,0.0,75,0.00,,,0.00,VWS V14.01,2013-04-17 13:32:00,
2013-04-17 06:33:00,44.5,37.1,29.98,ESE,114,0.0,0.0,75,0.00,,,0.00,VWS V14.01,2013-04-17 13:33:00,
2013-04-17 06:34:00,44.5,37.1,29.98,ESE,115,1.0,1.0,75,0.00,,,0.00,VWS V14.01,2013-04-17 13:34:00,
2013-04-17 06:35:00,44.5,37.1,29.99,ESE,114,1.0,1.0,75,0.00,,,0.00,VWS V14.01,2013-04-17 13:35:00,
2013-04-17 06:36:00,44.5,37.1,29.99,ESE,114,1.0,1.0,75,0.00,,,0.00,VWS V14.01,2013-04-17 13:36:00,
2013-04-17 06:37:00,44.5,37.1,29.99,ESE,117,1.0,1.0,75,0.00,,,0.00,VWS V14.01,2013-04-17 13:37:00,
2013-04-17 06:38:00,44.5,37.1,29.99,ESE,117,1.0,1.0,75,0.00,,,0.00,VWS V14.01,2013-04-17 13:38:00,
2013-04-17 06:39:00,44.5,37.1,29.99,ESE,114,1.0,1.0,75,0.00,,,0.00,VWS V14.01,2013-04-17 13:39:00,
2013-04-17 06:40:00,44.5,37.1,29.99,ESE,115,1.0,2.0,75,0.00,,,0.00,VWS V14.01,2013-04-17 13:40:00,
2013-04-17 06:41:00,44.5,37.1,29.99,ESE,115,1.0,2.0,75,0.00,,,0.00,VWS V14.01,2013-04-17 13:41:00,
2013-04-17 06:42:00,44.6,37.2,29.99,ESE,114,0.0,1.0,75,0.00,,,0.00,VWS V14.01,2013-04-17 13:42:00,
2013-04-17 06:43:00,44.7,37.3,29.99,ESE,114,0.0,1.0,75,0.00,,,0.00,VWS V14.01,2013-04-17 13:43:00,
2013-04-17 06:44:00,44.7,37.3,29.99,ESE,114,0.0,1.0,75,0.00,,,0.00,VWS V14.01,2013-04-17 13:44:00,
2013-04-17 06:45:00,44.8,37.4,29.99,ESE,114,1.0,1.0,75,0.00,,,0.00,VWS V14.01,2013-04-17 13:45:00,
2013-04-17 06:46:00,45.1,37.7,29.99,ESE,114,1.0,2.0,75,0.00,,,0.00,VWS V14.01,2013-04-17 13:46:00,
2013-04-17 06:47:00,45.2,37.4,29.99,ESE,114,0.0,1.0,74,0.00,,,0.00,VWS V14.01,2013-04-17 13:47:00,
2013-04-17 06:48:00,45.2,37.8,29.99,ESE,114,0.0,1.0,75,0.00,,,0.00,VWS V14.01,2013-04-17 13:48:00,
2013-04-17 06:49:00,45.5,37.7,29.99,ESE,115,1.0,2.0,74,0.00,,,0.00,VWS V14.01,2013-04-17 13:49:00,
2013-04-17 06:50:00,45.5,37.7,29.99,ESE,113,1.0,2.0,74,0.00,,,0.00,VWS V14.01,2013-04-17 13:50:00,
2013-04-17 06:51:00,45.6,37.8,29.99,ESE,115,1.0,2.0,74,0.00,,,0.00,VWS V14.01,2013-04-17 13:51:00,
2013-04-17 06:52:00,46.1,37.9,29.99,ESE,117,1.0,1.0,73,0.00,,,0.00,VWS V14.01,2013-04-17 13:52:00,
2013-04-17 06:53:00,46.2,38.0,29.99,ESE,115,1.0,1.0,73,0.00,,,0.00,VWS V14.01,2013-04-17 13:53:00,
2013-04-17 06:54:00,46.2,38.0,29.99,ESE,117,1.0,1.0,73,0.00,,,0.00,VWS V14.01,2013-04-17 13:54:00,
2013-04-17 06:55:00,46.3,37.8,30.00,ESE,116,1.0,1.0,72,0.00,,,0.00,VWS V14.01,2013-04-17 13:55:00,
2013-04-17 06:56:00,46.6,37.7,30.00,ESE,114,1.0,1.0,71,0.00,,,0.00,VWS V14.01,2013-04-17 13:56:00,
2013-04-17 06:57:00,47.0,37.7,30.00,ESE,112,2.0,2.0,70,0.00,,,0.00,VWS V14.01,2013-04-17 13:57:00,
2013-04-17 06:58:00,46.9,37.6,30.00,ESE,117,1.0,2.0,70,0.00,,,0.00,VWS V14.01,2013-04-17 13:58:00,
2013-04-17 06:59:00,47.1,37.8,30.00,ESE,111,1.0,2.0,70,0.00,,,0.00,VWS V14.01,2013-04-17 13:59:00,
2013-04-17 07:00:00,47.3,37.7,30.00,ESE,112,0.0,1.0,69,0.00,,,0.00,VWS V14.01,2013-04-17 14:00:00,
2013-04-17 07:01:00,47.7,38.0,30.00,ESE,111,0.0,1.0,69,0.00,,,0.00,VWS V14.01,2013-04-17 14:01:00,
2013-04-17 07:02:00,47.7,38.0,30.00,ESE,111,0.0,1.0,69,0.00,,,0.00,VWS V14.01,2013-04-17 14:02:00,
2013-04-17 07:03:00,48.2,38.2,30.00,ESE,111,0.0,0.0,68,0.00,,,0.00,VWS V14.01,2013-04-17 14:03:00,
2013-04-17 07:04:00,48.1,38.0,30.00,ESE,111,0.0,0.0,68,0.00,,,0.00,VWS V14.01,2013-04-17 14:04:00,
2013-04-17 07:05:00,48.4,38.0,30.00,ESE,111,1.0,1.0,67,0.00,,,0.00,VWS V14.01,2013-04-17 14:05:00,
2013-04-17 07:06:00,48.9,38.1,30.00,ESE,112,0.0,0.0,66,0.00,,,0.00,VWS V14.01,2013-04-17 14:06:00,
2013-04-17 07:07:00,49.1,37.9,30.00,ESE,111,1.0,1.0,65,0.00,,,0.00,VWS V14.01,2013-04-17 14:07:00,
2013-04-17 07:08:00,49.1,37.9,30.00,ESE,111,1.0,1.0,65,0.00,,,0.00,VWS V14.01,2013-04-17 14:08:00,
2013-04-17 07:09:00,49.3,38.0,30.00,ESE,114,1.0,1.0,65,0.00,,,0.00,VWS V14.01,2013-04-17 14:09:00,
2013-04-17 07:10:00,49.7,37.6,30.00,ESE,113,1.0,1.0,63,0.00,,,0.00,VWS V14.01,2013-04-17 14:10:00,
2013-04-17 07:11:00,49.7,37.6,30.00,ESE,113,1.0,1.0,63,0.00,,,0.00,VWS V14.01,2013-04-17 14:11:00,
2013-04-17 07:12:00,49.8,37.7,30.00,ESE,113,1.0,1.0,63,0.00,,,0.00,VWS V14.01,2013-04-17 14:12:00,
2013-04-17 07:13:00,50.1,38.0,30.00,ESE,113,0.0,0.0,63,0.00,,,0.00,VWS V14.01,2013-04-17 14:13:00,
2013-04-17 07:14:00,50.2,37.7,30.00,ESE,113,0.0,0.0,62,0.00,,,0.00,VWS V14.01,2013-04-17 14:14:00,
2013-04-17 07:15:00,50.1,37.6,30.00,ESE,113,0.0,0.0,62,0.00,,,0.00,VWS V14.01,2013-04-17 14:15:00,
2013-04-17 07:16:00,50.6,38.1,30.01,ESE,113,0.0,0.0,62,0.00,,,0.00,VWS V14.01,2013-04-17 14:16:00,
2013-04-17 07:17:00,50.6,38.1,30.01,ESE,113,0.0,0.0,62,0.00,,,0.00,VWS V14.01,2013-04-17 14:17:00,
2013-04-17 07:18:00,50.9,38.0,30.01,ESE,113,0.0,0.0,61,0.00,,,0.00,VWS V14.01,2013-04-17 14:18:00,
2013-04-17 07:19:00,51.3,38.3,30.01,ESE,113,0.0,0.0,61,0.00,,,0.00,VWS V14.01,2013-04-17 14:19:00,
2013-04-17 07:20:00,51.3,38.3,30.01,ESE,113,0.0,0.0,61,0.00,,,0.00,VWS V14.01,2013-04-17 14:20:00,
2013-04-17 07:21:00,51.6,38.2,30.01,ESE,113,1.0,1.0,60,0.00,,,0.00,VWS V14.01,2013-04-17 14:21:00,
2013-04-17 07:22:00,51.7,37.8,30.01,ESE,113,1.0,1.0,59,0.00,,,0.00,VWS V14.01,2013-04-17 14:22:00,
2013-04-17 07:23:00,51.7,37.8,30.01,ESE,113,1.0,1.0,59,0.00,,,0.00,VWS V14.01,2013-04-17 14:23:00,
2013-04-17 07:24:00,51.8,37.5,30.01,ESE,113,0.0,1.0,58,0.00,,,0.00,VWS V14.01,2013-04-17 14:24:00,
2013-04-17 07:25:00,51.9,37.6,30.01,ESE,113,1.0,1.0,58,0.00,,,0.00,VWS V14.01,2013-04-17 14:25:00,
2013-04-17 07:26:00,51.9,37.6,30.01,ESE,113,1.0,1.0,58,0.00,,,0.00,VWS V14.01,2013-04-17 14:26:00,
2013-04-17 07:27:00,52.1,37.8,30.01,ESE,113,1.0,1.0,58,0.00,,,0.00,VWS V14.01,2013-04-17 14:27:00,
2013-04-17 07:28:00,52.1,37.8,30.01,ESE,113,1.0,1.0,58,0.00,,,0.00,VWS V14.01,2013-04-17 14:28:00,
2013-04-17 07:29:00,52.3,38.0,30.01,ESE,113,1.0,1.0,58,0.00,,,0.00,VWS V14.01,2013-04-17 14:29:00,
2013-04-17 07:30:00,52.6,38.3,30.01,ESE,111,1.0,1.0,58,0.00,,,0.00,VWS V14.01,2013-04-17 14:30:00,
2013-04-17 07:31:00,52.6,38.3,30.01,ESE,111,1.0,1.0,58,0.00,,,0.00,VWS V14.01,2013-04-17 14:31:00,
2013-04-17 07:32:00,52.6,38.3,30.01,ESE,111,1.0,1.0,58,0.00,,,0.00,VWS V14.01,2013-04-17 14:32:00,
2013-04-17 07:33:00,52.8,38.9,30.01,ESE,120,1.0,1.0,59,0.00,,,0.00,VWS V14.01,2013-04-17 14:33:00,
2013-04-17 07:34:00,52.8,38.9,30.01,ESE,120,1.0,1.0,59,0.00,,,0.00,VWS V14.01,2013-04-17 14:34:00,
2013-04-17 07:35:00,53.0,39.1,30.01,ESE,117,1.0,1.0,59,0.00,,,0.00,VWS V14.01,2013-04-17 14:35:00,
2013-04-17 07:36:00,53.0,39.1,30.01,ESE,117,1.0,1.0,59,0.00,,,0.00,VWS V14.01,2013-04-17 14:36:00,
2013-04-17 07:37:00,53.1,39.2,30.01,ESE,117,1.0,1.0,59,0.00,,,0.00,VWS V14.01,2013-04-17 14:37:00,
2013-04-17 07:38:00,53.2,39.3,30.01,ESE,118,1.0,1.0,59,0.00,,,0.00,VWS V14.01,2013-04-17 14:38:00,
2013-04-17 07:39:00,53.2,39.3,30.01,ESE,118,1.0,1.0,59,0.00,,,0.00,VWS V14.01,2013-04-17 14:39:00,
2013-04-17 07:40:00,53.4,39.5,30.01,ESE,118,1.0,1.0,59,0.00,,,0.00,VWS V14.01,2013-04-17 14:40:00,
2013-04-17 07:41:00,53.6,39.2,30.01,ESE,117,0.0,1.0,58,0.00,,,0.00,VWS V14.01,2013-04-17 14:41:00,
2013-04-17 07:42:00,53.7,39.3,30.02,ESE,117,0.0,1.0,58,0.00,,,0.00,VWS V14.01,2013-04-17 14:42:00,
2013-04-17 07:43:00,53.8,38.9,30.02,ESE,117,1.0,1.0,57,0.00,,,0.00,VWS V14.01,2013-04-17 14:43:00,
2013-04-17 07:44:00,53.8,38.9,30.02,ESE,117,1.0,1.0,57,0.00,,,0.00,VWS V14.01,2013-04-17 14:44:00,
2013-04-17 07:45:00,54.1,38.8,30.02,ESE,113,1.0,1.0,56,0.00,,,0.00,VWS V14.01,2013-04-17 14:45:00,
2013-04-17 07:46:00,54.1,38.8,30.02,ESE,113,1.0,1.0,56,0.00,,,0.00,VWS V14.01,2013-04-17 14:46:00,
2013-04-17 07:47:00,54.3,38.5,30.02,ESE,115,1.0,1.0,55,0.00,,,0.00,VWS V14.01,2013-04-17 14:47:00,
2013-04-17 07:48:00,54.4,38.6,30.02,ESE,114,1.0,1.0,55,0.00,,,0.00,VWS V14.01,2013-04-17 14:48:00,
2013-04-17 07:49:00,54.5,38.7,30.02,ESE,115,0.0,0.0,55,0.00,,,0.00,VWS V14.01,2013-04-17 14:49:00,
2013-04-17 07:50:00,54.6,38.8,30.02,ESE,115,1.0,1.0,55,0.00,,,0.00,VWS V14.01,2013-04-17 14:50:00,
2013-04-17 07:55:00,55.3,39.0,30.02,ESE,112,0.0,0.0,54,0.00,,,0.00,VWS V14.01,2013-04-17 14:55:00,
2013-04-17 07:56:00,55.7,38.4,30.02,ESE,108,0.0,1.0,52,0.00,,,0.00,VWS V14.01,2013-04-17 14:56:00,
2013-04-17 07:57:00,56.0,38.6,30.02,ESE,108,0.0,0.0,52,0.00,,,0.00,VWS V14.01,2013-04-17 14:57:00,
2013-04-17 07:59:00,55.5,39.1,30.02,ESE,107,0.0,0.0,54,0.00,,,0.00,VWS V14.01,2013-04-17 14:59:00,
2013-04-17 08:01:00,57.1,37.1,30.02,ESE,108,0.0,1.0,47,0.00,,,0.00,VWS V14.01,2013-04-17 15:01:00,
2013-04-17 08:02:00,57.3,36.2,30.02,ESE,108,0.0,0.0,45,0.00,,,0.00,VWS V14.01,2013-04-17 15:02:00,
2013-04-17 08:03:00,57.6,35.9,30.02,ESE,107,0.0,0.0,44,0.00,,,0.00,VWS V14.01,2013-04-17 15:03:00,
2013-04-17 08:04:00,57.8,36.0,30.02,ESE,108,0.0,0.0,44,0.00,,,0.00,VWS V14.01,2013-04-17 15:04:00,
2013-04-17 08:05:00,58.0,36.2,30.02,ESE,107,0.0,0.0,44,0.00,,,0.00,VWS V14.01,2013-04-17 15:05:00,
2013-04-17 08:07:00,58.1,35.7,30.02,ESE,110,0.0,1.0,43,0.00,,,0.00,VWS V14.01,2013-04-17 15:07:00,
2013-04-17 08:08:00,57.9,35.6,30.02,West,267,1.0,2.0,43,0.00,,,0.00,VWS V14.01,2013-04-17 15:08:00,
2013-04-17 08:11:00,57.3,35.6,30.02,West,266,0.0,0.0,44,0.00,,,0.00,VWS V14.01,2013-04-17 15:11:00,
2013-04-17 08:12:00,57.3,35.6,30.02,West,266,0.0,0.0,44,0.00,,,0.00,VWS V14.01,2013-04-17 15:12:00,
2013-04-17 08:13:00,57.2,35.5,30.02,West,264,1.0,1.0,44,0.00,,,0.00,VWS V14.01,2013-04-17 15:13:00,
2013-04-17 08:16:00,57.1,36.0,30.02,West,274,2.0,2.0,45,0.00,,,0.00,VWS V14.01,2013-04-17 15:16:00,
2013-04-17 08:17:00,57.0,35.9,30.02,West,273,1.0,2.0,45,0.00,,,0.00,VWS V14.01,2013-04-17 15:17:00,
2013-04-17 08:18:00,57.0,35.9,30.02,WSW,253,1.0,2.0,45,0.00,,,0.00,VWS V14.01,2013-04-17 15:18:00,
2013-04-17 08:22:00,56.8,35.7,30.02,West,276,1.0,3.0,45,0.00,,,0.00,VWS V14.01,2013-04-17 15:22:00,
2013-04-17 08:23:00,56.8,36.3,30.02,WSW,253,1.0,1.0,46,0.00,,,0.00,VWS V14.01,2013-04-17 15:23:00,
2013-04-17 08:24:00,56.8,36.3,30.02,West,266,2.0,3.0,46,0.00,,,0.00,VWS V14.01,2013-04-17 15:24:00,
2013-04-17 08:28:00,57.0,35.9,30.02,West,259,1.0,1.0,45,0.00,,,0.00,VWS V14.01,2013-04-17 15:28:00,
2013-04-17 08:29:00,57.1,36.0,30.02,WSW,248,2.0,2.0,45,0.00,,,0.00,VWS V14.01,2013-04-17 15:29:00,
2013-04-17 08:31:00,57.2,36.1,30.03,WNW,282,3.0,3.0,45,0.00,,,0.00,VWS V14.01,2013-04-17 15:31:00,
2013-04-17 08:33:00,57.3,36.2,30.02,WNW,288,3.0,4.0,45,0.00,,,0.00,VWS V14.01,2013-04-17 15:33:00,
2013-04-17 08:34:00,57.3,36.2,30.02,West,276,2.0,5.0,45,0.00,,,0.00,VWS V14.01,2013-04-17 15:34:00,
2013-04-17 08:37:00,57.4,35.7,30.02,WSW,253,2.0,5.0,44,0.00,,,0.00,VWS V14.01,2013-04-17 15:37:00,
2013-04-17 08:39:00,57.6,36.4,30.03,West,273,3.0,3.0,45,0.00,,,0.00,VWS V14.01,2013-04-17 15:39:00,
2013-04-17 08:40:00,57.7,36.5,30.03,WSW,250,2.0,4.0,45,0.00,,,0.00,VWS V14.01,2013-04-17 15:40:00,
2013-04-17 08:42:00,57.8,36.0,30.03,WNW,288,2.0,3.0,44,0.00,,,0.00,VWS V14.01,2013-04-17 15:42:00,
2013-04-17 08:43:00,57.9,36.1,30.03,West,265,2.0,3.0,44,0.00,,,0.00,VWS V14.01,2013-04-17 15:43:00,
2013-04-17 08:45:00,58.1,35.7,30.02,West,274,2.0,4.0,43,0.00,,,0.00,VWS V14.01,2013-04-17 15:45:00,
2013-04-17 08:46:00,58.2,35.2,30.02,WNW,285,2.0,2.0,42,0.00,,,0.00,VWS V14.01,2013-04-17 15:46:00,
2013-04-17 08:48:00,58.4,35.4,30.02,WNW,285,1.0,3.0,42,0.00,,,0.00,VWS V14.01,2013-04-17 15:48:00,
2013-04-17 08:49:00,58.5,35.5,30.03,SSW,207,2.0,2.0,42,0.00,,,0.00,VWS V14.01,2013-04-17 15:49:00,
2013-04-17 08:50:00,58.7,35.7,30.02,WSW,248,2.0,2.0,42,0.00,,,0.00,VWS V14.01,2013-04-17 15:50:00,
2013-04-17 08:52:00,59.0,36.0,30.02,West,274,2.0,2.0,42,0.00,,,0.00,VWS V14.01,2013-04-17 15:52:00,
2013-04-17 08:54:00,59.3,35.0,30.02,SW,222,2.0,2.0,40,0.00,,,0.00,VWS V14.01,2013-04-17 15:54:00,
2013-04-17 08:56:00,59.5,34.5,30.02,NW,304,1.0,1.0,39,0.00,,,0.00,VWS V14.01,2013-04-17 15:56:00,
2013-04-17 08:57:00,59.8,34.8,30.02,WNW,297,1.0,2.0,39,0.00,,,0.00,VWS V14.01,2013-04-17 15:57:00,
2013-04-17 08:59:00,60.0,34.3,30.02,WNW,293,1.0,1.0,38,0.00,,,0.00,VWS V14.01,2013-04-17 15:59:00,
2013-04-17 09:01:00,60.2,34.5,30.02,SW,232,3.0,5.0,38,0.00,,,0.00,VWS V14.01,2013-04-17 16:01:00,
2013-04-17 09:02:00,60.2,34.5,30.02,West,274,3.0,4.0,38,0.00,,,0.00,VWS V14.01,2013-04-17 16:02:00,
2013-04-17 09:03:00,60.1,34.4,30.02,West,275,3.0,5.0,38,0.00,,,0.00,VWS V14.01,2013-04-17 16:03:00,
2013-04-17 09:04:00,60.1,34.4,30.02,West,263,2.0,5.0,38,0.00,,,0.00,VWS V14.01,2013-04-17 16:04:00,
2013-04-17 09:06:00,60.1,35.1,30.03,West,276,1.0,4.0,39,0.00,,,0.00,VWS V14.01,2013-04-17 16:06:00,
2013-04-17 09:08:00,60.3,35.3,30.02,NNW,335,2.0,3.0,39,0.00,,,0.00,VWS V14.01,2013-04-17 16:08:00,
2013-04-17 09:10:00,60.7,35.0,30.03,NNW,335,1.0,4.0,38,0.00,,,0.00,VWS V14.01,2013-04-17 16:10:00,
2013-04-17 09:13:00,61.0,34.6,30.03,NNW,337,2.0,2.0,37,0.00,,,0.00,VWS V14.01,2013-04-17 16:13:00,
2013-04-17 09:14:00,61.1,35.3,30.03,NW,325,2.0,4.0,38,0.00,,,0.00,VWS V14.01,2013-04-17 16:14:00,
2013-04-17 09:15:00,61.3,35.5,30.03,NNW,345,2.0,2.0,38,0.00,,,0.00,VWS V14.01,2013-04-17 16:15:00,
2013-04-17 09:18:00,61.6,33.7,30.02,WNW,291,0.0,3.0,35,0.00,,,0.00,VWS V14.01,2013-04-17 16:18:00,
2013-04-17 09:19:00,61.6,34.4,30.02,WSW,240,1.0,2.0,36,0.00,,,0.00,VWS V14.01,2013-04-17 16:19:00,
2013-04-17 09:20:00,61.7,34.5,30.02,WSW,248,0.0,2.0,36,0.00,,,0.00,VWS V14.01,2013-04-17 16:20:00,
2013-04-17 09:22:00,62.0,35.5,30.02,West,271,0.0,2.0,37,0.00,,,0.00,VWS V14.01,2013-04-17 16:22:00,
2013-04-17 09:23:00,62.2,34.9,30.02,West,274,0.0,1.0,36,0.00,,,0.00,VWS V14.01,2013-04-17 16:23:00,
2013-04-17 09:25:00,62.6,34.6,30.03,North,6,2.0,4.0,35,0.00,,,0.00,VWS V14.01,2013-04-17 16:25:00,
2013-04-17 09:27:00,62.8,34.8,30.03,West,264,2.0,3.0,35,0.00,,,0.00,VWS V14.01,2013-04-17 16:27:00,
2013-04-17 09:28:00,63.0,34.2,30.03,WSW,248,2.0,2.0,34,0.00,,,0.00,VWS V14.01,2013-04-17 16:28:00,
2013-04-17 09:29:00,63.0,34.2,30.02,NW,316,1.0,1.0,34,0.00,,,0.00,VWS V14.01,2013-04-17 16:29:00,
2013-04-17 09:31:00,63.2,33.6,30.02,NW,315,1.0,2.0,33,0.00,,,0.00,VWS V14.01,2013-04-17 16:31:00,
2013-04-17 09:33:00,63.4,33.8,30.02,NW,315,2.0,3.0,33,0.00,,,0.00,VWS V14.01,2013-04-17 16:33:00,
2013-04-17 09:34:00,63.5,33.9,30.02,North,354,2.0,4.0,33,0.00,,,0.00,VWS V14.01,2013-04-17 16:34:00,
2013-04-17 09:35:00,63.5,33.9,30.02,West,260,2.0,2.0,33,0.00,,,0.00,VWS V14.01,2013-04-17 16:35:00,
2013-04-17 09:36:00,63.5,33.9,30.02,WSW,243,2.0,2.0,33,0.00,,,0.00,VWS V14.01,2013-04-17 16:36:00,
2013-04-17 09:37:00,63.5,33.9,30.02,West,263,1.0,2.0,33,0.00,,,0.00,VWS V14.01,2013-04-17 16:37:00,
2013-04-17 09:40:00,63.8,34.9,30.02,SW,226,4.0,4.0,34,0.00,,,0.00,VWS V14.01,2013-04-17 16:40:00,
2013-04-17 09:41:00,63.8,33.4,30.02,SW,233,5.0,6.0,32,0.00,,,0.00,VWS V14.01,2013-04-17 16:41:00,
2013-04-17 09:42:00,63.7,33.3,30.03,North,9,2.0,3.0,32,0.00,,,0.00,VWS V14.01,2013-04-17 16:42:00,
2013-04-17 09:43:00,63.7,33.3,30.02,SW,225,1.0,4.0,32,0.00,,,0.00,VWS V14.01,2013-04-17 16:43:00,
2013-04-17 09:45:00,63.9,33.5,30.02,West,262,1.0,2.0,32,0.00,,,0.00,VWS V14.01,2013-04-17 16:45:00,
2013-04-17 09:47:00,64.1,34.4,30.02,WSW,245,3.0,3.0,33,0.00,,,0.00,VWS V14.01,2013-04-17 16:47:00,
2013-04-17 09:48:00,64.2,34.5,30.02,WNW,284,2.0,4.0,33,0.00,,,0.00,VWS V14.01,2013-04-17 16:48:00,
2013-04-17 09:49:00,64.3,34.6,30.02,NW,326,1.0,1.0,33,0.00,,,0.00,VWS V14.01,2013-04-17 16:49:00,
2013-04-17 09:53:00,64.7,34.2,30.02,West,263,1.0,2.0,32,0.00,,,0.00,VWS V14.01,2013-04-17 16:53:00,
2013-04-17 09:54:00,64.9,33.6,30.02,WSW,245,5.0,6.0,31,0.00,,,0.00,VWS V14.01,2013-04-17 16:54:00,
2013-04-17 09:55:00,64.8,33.5,30.02,WSW,246,3.0,5.0,31,0.00,,,0.00,VWS V14.01,2013-04-17 16:55:00,
2013-04-17 09:56:00,64.7,34.2,30.02,WSW,250,2.0,4.0,32,0.00,,,0.00,VWS V14.01,2013-04-17 16:56:00,
2013-04-17 09:58:00,64.5,33.2,30.02,West,260,3.0,5.0,31,0.00,,,0.00,VWS V14.01,2013-04-17 16:58:00,
2013-04-17 10:00:00,64.5,34.0,30.02,WSW,257,3.0,3.0,32,0.00,,,0.00,VWS V14.01,2013-04-17 17:00:00,
2013-04-17 10:01:00,64.5,34.0,30.02,West,262,2.0,3.0,32,0.00,,,0.00,VWS V14.01,2013-04-17 17:01:00,
2013-04-17 10:02:00,64.6,33.3,30.02,WSW,256,2.0,3.0,31,0.00,,,0.00,VWS V14.01,2013-04-17 17:02:00,
2013-04-17 10:03:00,64.6,34.1,30.02,North,349,3.0,5.0,32,0.00,,,0.00,VWS V14.01,2013-04-17 17:03:00,
2013-04-17 10:04:00,64.6,32.5,30.02,West,266,1.0,3.0,30,0.00,,,0.00,VWS V14.01,2013-04-17 17:04:00,
2013-04-17 10:05:00,64.6,33.3,30.02,WSW,250,2.0,3.0,31,0.00,,,0.00,VWS V14.01,2013-04-17 17:05:00,
2013-04-17 10:07:00,64.7,32.6,30.02,West,269,1.0,2.0,30,0.00,,,0.00,VWS V14.01,2013-04-17 17:07:00,
2013-04-17 10:09:00,65.0,33.7,30.02,NW,308,0.0,1.0,31,0.00,,,0.00,VWS V14.01,2013-04-17 17:09:00,
2013-04-17 10:10:00,65.2,33.8,30.02,WNW,291,3.0,3.0,31,0.00,,,0.00,VWS V14.01,2013-04-17 17:10:00,
2013-04-17 10:11:00,65.3,33.1,30.02,WNW,284,4.0,5.0,30,0.00,,,0.00,VWS V14.01,2013-04-17 17:11:00,
2013-04-17 10:12:00,65.2,32.2,30.02,West,281,1.0,5.0,29,0.00,,,0.00,VWS V14.01,2013-04-17 17:12:00,
2013-04-17 10:13:00,65.2,33.0,30.02,West,269,1.0,3.0,30,0.00,,,0.00,VWS V14.01,2013-04-17 17:13:00,
2013-04-17 10:14:00,65.1,32.1,30.02,West,261,2.0,3.0,29,0.00,,,0.00,VWS V14.01,2013-04-17 17:14:00,
2013-04-17 10:15:00,65.1,33.7,30.02,WNW,294,1.0,1.0,31,0.00,,,0.00,VWS V14.01,2013-04-17 17:15:00,
2013-04-17 10:18:00,65.6,31.6,30.02,NNW,342,2.0,4.0,28,0.00,,,0.00,VWS V14.01,2013-04-17 17:18:00,
2013-04-17 10:20:00,65.8,30.0,30.02,North,1,4.0,6.0,26,0.00,,,0.00,VWS V14.01,2013-04-17 17:20:00,
2013-04-17 10:21:00,65.7,26.9,30.02,North,355,6.0,6.0,23,0.00,,,0.00,VWS V14.01,2013-04-17 17:21:00,
2013-04-17 10:23:00,65.6,28.9,30.02,NW,319,4.0,5.0,25,0.00,,,0.00,VWS V14.01,2013-04-17 17:23:00,
2013-04-17 10:26:00,65.7,28.0,30.02,East,82,1.0,6.0,24,0.00,,,0.00,VWS V14.01,2013-04-17 17:26:00,
2013-04-17 10:27:00,65.6,26.8,30.02,North,6,4.0,4.0,23,0.00,,,0.00,VWS V14.01,2013-04-17 17:27:00,
2013-04-17 10:28:00,65.7,28.0,30.02,NW,316,0.0,4.0,24,0.00,,,0.00,VWS V14.01,2013-04-17 17:28:00,
2013-04-17 10:30:00,66.0,29.2,30.02,NW,308,2.0,2.0,25,0.00,,,0.00,VWS V14.01,2013-04-17 17:30:00,
2013-04-17 10:33:00,66.4,28.5,30.03,WNW,284,1.0,3.0,24,0.00,,,0.00,VWS V14.01,2013-04-17 17:33:00,
2013-04-17 10:34:00,66.3,27.4,30.02,ESE,103,3.0,5.0,23,0.00,,,0.00,VWS V14.01,2013-04-17 17:34:00,
2013-04-17 10:36:00,66.2,28.4,30.02,North,353,1.0,1.0,24,0.00,,,0.00,VWS V14.01,2013-04-17 17:36:00,
2013-04-17 10:37:00,66.3,30.4,30.02,NW,321,1.0,2.0,26,0.00,,,0.00,VWS V14.01,2013-04-17 17:37:00,
2013-04-17 10:39:00,66.3,29.5,30.02,West,278,4.0,4.0,25,0.00,,,0.00,VWS V14.01,2013-04-17 17:39:00,
2013-04-17 10:40:00,66.1,28.3,30.02,SSW,205,3.0,3.0,24,0.00,,,0.00,VWS V14.01,2013-04-17 17:40:00,
2013-04-17 10:42:00,66.1,30.2,30.02,WSW,256,2.0,2.0,26,0.00,,,0.00,VWS V14.01,2013-04-17 17:42:00,
2013-04-17 10:44:00,66.6,29.7,30.02,West,279,3.0,3.0,25,0.00,,,0.00,VWS V14.01,2013-04-17 17:44:00,
2013-04-17 10:45:00,66.9,30.0,30.02,West,260,1.0,2.0,25,0.00,,,0.00,VWS V14.01,2013-04-17 17:45:00,
2013-04-17 10:47:00,67.3,31.3,30.02,West,281,3.0,4.0,26,0.00,,,0.00,VWS V14.01,2013-04-17 17:47:00,
2013-04-17 10:48:00,67.5,31.4,30.02,NW,326,3.0,3.0,26,0.00,,,0.00,VWS V14.01,2013-04-17 17:48:00,
2013-04-17 10:49:00,67.6,29.6,30.02,West,260,1.0,3.0,24,0.00,,,0.00,VWS V14.01,2013-04-17 17:49:00,
2013-04-17 10:50:00,67.6,28.5,30.02,SW,233,2.0,3.0,23,0.00,,,0.00,VWS V14.01,2013-04-17 17:50:00,
2013-04-17 10:52:00,67.5,28.4,30.02,West,261,6.0,7.0,23,0.00,,,0.00,VWS V14.01,2013-04-17 17:52:00,
2013-04-17 10:54:00,67.4,28.4,30.02,WSW,244,2.0,2.0,23,0.00,,,0.00,VWS V14.01,2013-04-17 17:54:00,
2013-04-17 10:55:00,67.2,28.2,30.02,WNW,283,5.0,5.0,23,0.00,,,0.00,VWS V14.01,2013-04-17 17:55:00,
2013-04-17 10:56:00,67.1,28.1,30.02,WSW,242,2.0,5.0,23,0.00,,,0.00,VWS V14.01,2013-04-17 17:56:00,
2013-04-17 10:57:00,67.0,28.0,30.02,West,271,2.0,5.0,23,0.00,,,0.00,VWS V14.01,2013-04-17 17:57:00,
2013-04-17 11:00:00,66.9,27.9,30.02,West,264,6.0,11.0,23,0.00,,,0.00,VWS V14.01,2013-04-17 18:00:00,
2013-04-17 11:01:00,66.7,27.8,30.02,West,274,3.0,7.0,23,0.00,,,0.00,VWS V14.01,2013-04-17 18:01:00,
2013-04-17 11:02:00,66.8,28.9,30.02,West,259,5.0,5.0,24,0.00,,,0.00,VWS V14.01,2013-04-17 18:02:00,
2013-04-17 11:03:00,66.7,26.7,30.02,SW,236,1.0,3.0,22,0.00,,,0.00,VWS V14.01,2013-04-17 18:03:00,
2013-04-17 11:07:00,66.6,26.6,30.02,West,259,2.0,4.0,22,0.00,,,0.00,VWS V14.01,2013-04-17 18:07:00,
2013-04-17 11:08:00,66.5,26.5,30.02,WSW,238,1.0,3.0,22,0.00,,,0.00,VWS V14.01,2013-04-17 18:08:00,
2013-04-17 11:09:00,66.6,26.6,30.02,WSW,240,0.0,1.0,22,0.00,,,0.00,VWS V14.01,2013-04-17 18:09:00,
2013-04-17 11:13:00,66.5,26.5,30.02,ESE,105,1.0,2.0,22,0.00,,,0.00,VWS V14.01,2013-04-17 18:13:00,
2013-04-17 11:14:00,66.5,26.5,30.02,SE,134,3.0,4.0,22,0.00,,,0.00,VWS V14.01,2013-04-17 18:14:00,
2013-04-17 11:15:00,66.6,25.5,30.02,East,82,3.0,5.0,21,0.00,,,0.00,VWS V14.01,2013-04-17 18:15:00,
2013-04-17 11:16:00,66.6,25.5,30.02,ENE,69,5.0,5.0,21,0.00,,,0.00,VWS V14.01,2013-04-17 18:16:00,
2013-04-17 11:19:00,66.9,25.7,30.01,SSE,155,3.0,6.0,21,0.00,,,0.00,VWS V14.01,2013-04-17 18:19:00,
2013-04-17 11:21:00,67.2,28.2,30.01,South,190,4.0,6.0,23,0.00,,,0.00,VWS V14.01,2013-04-17 18:21:00,
2013-04-17 11:22:00,67.4,26.1,30.01,SW,219,1.0,7.0,21,0.00,,,0.00,VWS V14.01,2013-04-17 18:22:00,
2013-04-17 11:26:00,67.6,27.4,30.01,West,261,1.0,4.0,22,0.00,,,0.00,VWS V14.01,2013-04-17 18:26:00,
2013-04-17 11:27:00,67.7,27.5,30.01,South,181,1.0,3.0,22,0.00,,,0.00,VWS V14.01,2013-04-17 18:27:00,
2013-04-17 11:28:00,67.9,27.7,30.01,East,101,1.0,4.0,22,0.00,,,0.00,VWS V14.01,2013-04-17 18:28:00,
2013-04-17 11:31:00,68.2,26.8,30.01,West,270,3.0,5.0,21,0.00,,,0.00,VWS V14.01,2013-04-17 18:31:00,
2013-04-17 11:33:00,68.6,28.3,30.01,West,278,0.0,1.0,22,0.00,,,0.00,VWS V14.01,2013-04-17 18:33:00,
2013-04-17 11:36:00,68.9,27.4,30.01,NNE,32,2.0,4.0,21,0.00,,,0.00,VWS V14.01,2013-04-17 18:36:00,
2013-04-17 11:38:00,69.2,29.9,30.01,NW,316,2.0,4.0,23,0.00,,,0.00,VWS V14.01,2013-04-17 18:38:00,
2013-04-17 11:39:00,69.2,29.9,30.01,North,9,2.0,4.0,23,0.00,,,0.00,VWS V14.01,2013-04-17 18:39:00,
2013-04-17 11:40:00,69.3,26.5,30.01,WSW,257,1.0,4.0,20,0.00,,,0.00,VWS V14.01,2013-04-17 18:40:00,
2013-04-17 11:44:00,69.3,27.7,30.01,SW,229,4.0,7.0,21,0.00,,,0.00,VWS V14.01,2013-04-17 18:44:00,
2013-04-17 11:45:00,69.2,28.8,30.01,NW,323,2.0,7.0,22,0.00,,,0.00,VWS V14.01,2013-04-17 18:45:00,
2013-04-17 11:46:00,69.4,27.8,30.01,NNW,342,5.0,5.0,21,0.00,,,0.00,VWS V14.01,2013-04-17 18:46:00,
2013-04-17 11:47:00,69.5,26.7,30.01,NNW,330,5.0,8.0,20,0.00,,,0.00,VWS V14.01,2013-04-17 18:47:00,
2013-04-17 11:49:00,69.4,26.6,30.01,NNE,21,2.0,5.0,20,0.00,,,0.00,VWS V14.01,2013-04-17 18:49:00,
2013-04-17 11:50:00,69.4,26.6,30.01,NNE,28,2.0,3.0,20,0.00,,,0.00,VWS V14.01,2013-04-17 18:50:00,
2013-04-17 11:52:00,69.4,26.6,30.00,ENE,61,1.0,2.0,20,0.00,,,0.00,VWS V14.01,2013-04-17 18:52:00,
2013-04-17 11:55:00,69.4,25.4,30.00,WSW,243,1.0,3.0,19,0.00,,,0.00,VWS V14.01,2013-04-17 18:55:00,
2013-04-17 11:56:00,69.3,25.3,30.00,NNW,328,2.0,7.0,19,0.00,,,0.00,VWS V14.01,2013-04-17 18:56:00,
2013-04-17 11:57:00,69.4,28.9,30.00,NNW,343,1.0,2.0,22,0.00,,,0.00,VWS V14.01,2013-04-17 18:57:00,
2013-04-17 12:00:00,69.8,25.7,30.00,West,271,3.0,6.0,19,0.00,,,0.00,VWS V14.01,2013-04-17 19:00:00,
2013-04-17 12:01:00,69.8,27.0,30.00,West,267,7.0,7.0,20,0.00,,,0.00,VWS V14.01,2013-04-17 19:01:00,
2013-04-17 12:03:00,69.5,26.7,30.00,WNW,286,3.0,3.0,20,0.00,,,0.00,VWS V14.01,2013-04-17 19:03:00,
2013-04-17 12:05:00,69.7,26.9,30.00,West,267,3.0,7.0,20,0.00,,,0.00,VWS V14.01,2013-04-17 19:05:00,
2013-04-17 12:06:00,69.8,28.1,30.00,WSW,257,2.0,4.0,21,0.00,,,0.00,VWS V14.01,2013-04-17 19:06:00,
2013-04-17 12:07:00,70.0,27.1,30.00,WSW,249,2.0,2.0,20,0.00,,,0.00,VWS V14.01,2013-04-17 19:07:00,
2013-04-17 12:09:00,70.3,26.1,30.00,WSW,243,3.0,3.0,19,0.00,,,0.00,VWS V14.01,2013-04-17 19:09:00,
2013-04-17 12:10:00,70.4,24.9,30.00,West,264,3.0,3.0,18,0.00,,,0.00,VWS V14.01,2013-04-17 19:10:00,
2013-04-17 12:11:00,70.3,26.1,30.00,WSW,257,5.0,6.0,19,0.00,,,0.00,VWS V14.01,2013-04-17 19:11:00,
2013-04-17 12:12:00,70.2,26.0,30.00,WSW,253,3.0,5.0,19,0.00,,,0.00,VWS V14.01,2013-04-17 19:12:00,
2013-04-17 12:14:00,70.3,27.4,30.00,NW,325,3.0,3.0,20,0.00,,,0.00,VWS V14.01,2013-04-17 19:14:00,
2013-04-17 12:17:00,70.5,27.5,30.00,WNW,288,5.0,8.0,20,0.00,,,0.00,VWS V14.01,2013-04-17 19:17:00,
2013-04-17 12:18:00,70.6,26.4,30.00,NNW,342,2.0,6.0,19,0.00,,,0.00,VWS V14.01,2013-04-17 19:18:00,
2013-04-17 12:19:00,70.7,26.5,30.00,WSW,253,3.0,5.0,19,0.00,,,0.00,VWS V14.01,2013-04-17 19:19:00,
2013-04-17 12:21:00,70.7,26.5,30.00,WSW,247,4.0,5.0,19,0.00,,,0.00,VWS V14.01,2013-04-17 19:21:00,
2013-04-17 12:23:00,70.5,26.3,30.00,WNW,285,2.0,2.0,19,0.00,,,0.00,VWS V14.01,2013-04-17 19:23:00,
2013-04-17 12:24:00,70.5,25.0,30.00,NNW,331,6.0,8.0,18,0.00,,,0.00,VWS V14.01,2013-04-17 19:24:00,
2013-04-17 12:26:00,70.1,24.7,30.00,NW,319,1.0,4.0,18,0.00,,,0.00,VWS V14.01,2013-04-17 19:26:00,
2013-04-17 12:28:00,69.9,24.5,30.00,SSW,206,0.0,1.0,18,0.00,,,0.00,VWS V14.01,2013-04-17 19:28:00,
2013-04-17 12:29:00,69.9,24.5,30.00,North,8,2.0,3.0,18,0.00,,,0.00,VWS V14.01,2013-04-17 19:29:00,
2013-04-17 12:32:00,70.3,24.8,30.00,ENE,70,4.0,6.0,18,0.00,,,0.00,VWS V14.01,2013-04-17 19:32:00,
2013-04-17 12:33:00,70.4,24.9,30.00,SE,131,1.0,3.0,18,0.00,,,0.00,VWS V14.01,2013-04-17 19:33:00,
2013-04-17 12:34:00,70.5,25.0,30.00,SE,131,0.0,0.0,18,0.00,,,0.00,VWS V14.01,2013-04-17 19:34:00,
2013-04-17 12:35:00,70.7,25.1,30.00,ENE,70,3.0,4.0,18,0.00,,,0.00,VWS V14.01,2013-04-17 19:35:00,
2013-04-17 12:37:00,71.0,25.4,29.99,NE,51,3.0,6.0,18,0.00,,,0.00,VWS V14.01,2013-04-17 19:37:00,
2013-04-17 12:38:00,71.1,25.5,29.99,NW,326,2.0,5.0,18,0.00,,,0.00,VWS V14.01,2013-04-17 19:38:00,
2013-04-17 12:40:00,71.2,25.6,29.99,NNE,23,5.0,5.0,18,0.00,,,0.00,VWS V14.01,2013-04-17 19:40:00,
2013-04-17 12:41:00,71.1,25.5,29.99,NNW,348,4.0,8.0,18,0.00,,,0.00,VWS V14.01,2013-04-17 19:41:00,
2013-04-17 12:43:00,71.0,24.0,29.99,NNE,32,3.0,5.0,17,0.00,,,0.00,VWS V14.01,2013-04-17 19:43:00,
2013-04-17 12:46:00,70.3,23.5,29.99,NE,52,4.0,5.0,17,0.00,,,0.00,VWS V14.01,2013-04-17 19:46:00,
2013-04-17 12:49:00,70.1,26.0,29.99,NNW,329,5.0,6.0,19,0.00,,,0.00,VWS V14.01,2013-04-17 19:49:00,
2013-04-17 12:50:00,70.2,26.0,29.99,West,277,4.0,4.0,19,0.00,,,0.00,VWS V14.01,2013-04-17 19:50:00,
2013-04-17 12:52:00,70.4,26.2,29.98,North,3,2.0,3.0,19,0.00,,,0.00,VWS V14.01,2013-04-17 19:52:00,
2013-04-17 12:53:00,70.8,25.2,29.98,North,1,6.0,10.0,18,0.00,,,0.00,VWS V14.01,2013-04-17 19:53:00,
2013-04-17 12:54:00,70.8,26.5,29.99,WNW,302,2.0,10.0,19,0.00,,,0.00,VWS V14.01,2013-04-17 19:54:00,
2013-04-17 12:55:00,71.1,26.8,29.98,North,352,6.0,7.0,19,0.00,,,0.00,VWS V14.01,2013-04-17 19:55:00,
2013-04-17 12:57:00,71.2,24.2,29.98,NW,315,4.0,9.0,17,0.00,,,0.00,VWS V14.01,2013-04-17 19:57:00,
2013-04-17 12:59:00,71.4,25.7,29.98,NW,319,3.0,7.0,18,0.00,,,0.00,VWS V14.01,2013-04-17 19:59:00,
2013-04-17 13:00:00,71.3,25.6,29.98,NNW,328,3.0,4.0,18,0.00,,,0.00,VWS V14.01,2013-04-17 20:00:00,
2013-04-17 13:01:00,71.2,24.2,29.98,North,353,3.0,5.0,17,0.00,,,0.00,VWS V14.01,2013-04-17 20:01:00,
2013-04-17 13:02:00,71.0,24.0,29.98,NW,326,0.0,2.0,17,0.00,,,0.00,VWS V14.01,2013-04-17 20:02:00,
2013-04-17 13:03:00,71.0,22.6,29.98,SW,215,1.0,2.0,16,0.00,,,0.00,VWS V14.01,2013-04-17 20:03:00,
2013-04-17 13:04:00,70.9,24.0,29.98,SW,217,2.0,3.0,17,0.00,,,0.00,VWS V14.01,2013-04-17 20:04:00,
2013-04-17 13:06:00,71.0,30.3,29.98,SSE,159,2.0,7.0,22,0.00,,,0.00,VWS V14.01,2013-04-17 20:06:00,
2013-04-17 13:07:00,71.1,31.5,29.98,WNW,288,3.0,7.0,23,0.00,,,0.00,VWS V14.01,2013-04-17 20:07:00,
2013-04-17 13:08:00,71.2,31.5,29.98,West,272,5.0,7.0,23,0.00,,,0.00,VWS V14.01,2013-04-17 20:08:00,
2013-04-17 13:09:00,71.1,31.5,29.98,SW,231,9.0,16.0,23,0.00,,,0.00,VWS V14.01,2013-04-17 20:09:00,
2013-04-17 13:12:00,70.7,31.1,29.98,West,260,6.0,11.0,23,0.00,,,0.00,VWS V14.01,2013-04-17 20:12:00,
2013-04-17 13:13:00,70.4,31.9,29.98,West,278,6.0,13.0,24,0.00,,,0.00,VWS V14.01,2013-04-17 20:13:00,
2013-04-17 13:14:00,70.2,31.8,29.98,WNW,298,4.0,7.0,24,0.00,,,0.00,VWS V14.01,2013-04-17 20:14:00,
2013-04-17 13:18:00,69.6,31.2,29.98,SSW,201,6.0,15.0,24,0.00,,,0.00,VWS V14.01,2013-04-17 20:18:00,
2013-04-17 13:19:00,69.5,31.2,29.98,West,271,8.0,8.0,24,0.00,,,0.00,VWS V14.01,2013-04-17 20:19:00,
2013-04-17 13:20:00,69.4,31.1,29.98,NW,304,13.0,17.0,24,0.00,,,0.00,VWS V14.01,2013-04-17 20:20:00,
2013-04-17 13:24:00,69.0,30.7,29.98,WNW,295,12.0,18.0,24,0.00,,,0.00,VWS V14.01,2013-04-17 20:24:00,
2013-04-17 13:25:00,68.9,31.7,29.98,West,269,3.0,12.0,25,0.00,,,0.00,VWS V14.01,2013-04-17 20:25:00,
2013-04-17 13:26:00,68.9,31.7,29.98,West,267,6.0,11.0,25,0.00,,,0.00,VWS V14.01,2013-04-17 20:26:00,
2013-04-17 13:27:00,68.9,31.7,29.98,WNW,284,7.0,14.0,25,0.00,,,0.00,VWS V14.01,2013-04-17 20:27:00,
2013-04-17 13:29:00,68.6,33.3,29.98,WSW,238,12.0,13.0,27,0.00,,,0.00,VWS V14.01,2013-04-17 20:29:00,
2013-04-17 13:32:00,68.5,33.2,29.98,West,281,6.0,9.0,27,0.00,,,0.00,VWS V14.01,2013-04-17 20:32:00,
2013-04-17 13:34:00,68.7,32.5,29.98,West,269,9.0,16.0,26,0.00,,,0.00,VWS V14.01,2013-04-17 20:34:00,
2013-04-17 13:36:00,68.8,30.6,29.98,West,260,12.0,12.0,24,0.00,,,0.00,VWS V14.01,2013-04-17 20:36:00,
2013-04-17 13:37:00,68.8,29.5,29.98,WSW,257,6.0,16.0,23,0.00,,,0.00,VWS V14.01,2013-04-17 20:37:00,
2013-04-17 13:39:00,68.8,30.6,29.98,West,278,6.0,10.0,24,0.00,,,0.00,VWS V14.01,2013-04-17 20:39:00,
2013-04-17 13:40:00,68.9,30.6,29.98,WSW,248,6.0,11.0,24,0.00,,,0.00,VWS V14.01,2013-04-17 20:40:00,
2013-04-17 13:43:00,69.0,29.7,29.98,NNW,340,3.0,9.0,23,0.00,,,0.00,VWS V14.01,2013-04-17 20:43:00,
2013-04-17 13:44:00,69.0,30.7,29.98,WSW,242,7.0,16.0,24,0.00,,,0.00,VWS V14.01,2013-04-17 20:44:00,
2013-04-17 13:45:00,69.1,30.8,29.98,West,259,7.0,13.0,24,0.00,,,0.00,VWS V14.01,2013-04-17 20:45:00,
2013-04-17 13:46:00,69.3,31.0,29.98,WNW,283,11.0,15.0,24,0.00,,,0.00,VWS V14.01,2013-04-17 20:46:00,
2013-04-17 13:49:00,69.1,30.8,29.98,West,264,7.0,17.0,24,0.00,,,0.00,VWS V14.01,2013-04-17 20:49:00,
2013-04-17 13:50:00,69.3,31.0,29.98,SSW,212,6.0,13.0,24,0.00,,,0.00,VWS V14.01,2013-04-17 20:50:00,
2013-04-17 13:51:00,69.4,30.0,29.98,WSW,255,7.0,9.0,23,0.00,,,0.00,VWS V14.01,2013-04-17 20:51:00,
2013-04-17 13:53:00,69.4,30.0,29.97,West,266,10.0,13.0,23,0.00,,,0.00,VWS V14.01,2013-04-17 20:53:00,
2013-04-17 13:54:00,69.4,28.9,29.98,WNW,288,11.0,17.0,22,0.00,,,0.00,VWS V14.01,2013-04-17 20:54:00,
2013-04-17 13:55:00,69.3,28.9,29.98,West,267,9.0,14.0,22,0.00,,,0.00,VWS V14.01,2013-04-17 20:55:00,
2013-04-17 13:56:00,69.1,28.7,29.98,West,274,10.0,17.0,22,0.00,,,0.00,VWS V14.01,2013-04-17 20:56:00,
2013-04-17 13:57:00,69.0,28.6,29.97,WNW,290,10.0,17.0,22,0.00,,,0.00,VWS V14.01,2013-04-17 20:57:00,
2013-04-17 14:00:00,68.6,30.4,29.98,WSW,250,9.0,14.0,24,0.00,,,0.00,VWS V14.01,2013-04-17 21:00:00,
2013-04-17 14:02:00,69.0,30.7,29.98,West,264,20.0,20.0,24,0.00,,,0.00,VWS V14.01,2013-04-17 21:02:00,
2013-04-17 14:05:00,68.9,28.5,29.97,WSW,246,12.0,16.0,22,0.00,,,0.00,VWS V14.01,2013-04-17 21:05:00,
2013-04-17 14:06:00,68.9,28.5,29.97,WSW,251,14.0,18.0,22,0.00,,,0.00,VWS V14.01,2013-04-17 21:06:00,
2013-04-17 14:08:00,68.8,29.5,29.97,West,270,8.0,16.0,23,0.00,,,0.00,VWS V14.01,2013-04-17 21:08:00,
2013-04-17 14:12:00,68.2,29.0,29.98,West,260,18.0,18.0,23,0.00,,,0.00,VWS V14.01,2013-04-17 21:12:00,
2013-04-17 14:13:00,68.1,30.0,29.98,WSW,246,9.0,17.0,24,0.00,,,0.00,VWS V14.01,2013-04-17 21:13:00,
2013-04-17 14:14:00,68.1,30.0,29.98,West,266,11.0,18.0,24,0.00,,,0.00,VWS V14.01,2013-04-17 21:14:00,
2013-04-17 14:18:00,68.2,31.1,29.98,NW,319,6.0,16.0,25,0.00,,,0.00,VWS V14.01,2013-04-17 21:18:00,
2013-04-17 14:19:00,68.3,31.1,29.97,West,266,11.0,17.0,25,0.00,,,0.00,VWS V14.01,2013-04-17 21:19:00,
2013-04-17 14:20:00,68.4,32.2,29.97,West,274,15.0,17.0,26,0.00,,,0.00,VWS V14.01,2013-04-17 21:20:00,
2013-04-17 14:22:00,68.3,31.1,29.97,WSW,252,17.0,25.0,25,0.00,,,0.00,VWS V14.01,2013-04-17 21:22:00,
2013-04-17 14:24:00,68.1,32.0,29.97,West,264,20.0,22.0,26,0.00,,,0.00,VWS V14.01,2013-04-17 21:24:00,
2013-04-17 14:25:00,68.0,31.9,29.97,WNW,283,12.0,19.0,26,0.00,,,0.00,VWS V14.01,2013-04-17 21:25:00,
2013-04-17 14:27:00,67.8,31.7,29.97,WNW,283,4.0,19.0,26,0.00,,,0.00,VWS V14.01,2013-04-17 21:27:00,
2013-04-17 14:28:00,67.9,31.8,29.97,WSW,242,8.0,18.0,26,0.00,,,0.00,VWS V14.01,2013-04-17 21:28:00,
2013-04-17 14:29:00,68.0,32.8,29.97,WSW,245,9.0,17.0,27,0.00,,,0.00,VWS V14.01,2013-04-17 21:29:00,
2013-04-17 14:30:00,68.2,33.9,29.97,WSW,256,11.0,17.0,28,0.00,,,0.00,VWS V14.01,2013-04-17 21:30:00,
2013-04-17 14:31:00,68.3,33.1,29.97,NNE,28,13.0,23.0,27,0.00,,,0.00,VWS V14.01,2013-04-17 21:31:00,
2013-04-17 14:32:00,68.4,33.1,29.97,WNW,294,9.0,13.0,27,0.00,,,0.00,VWS V14.01,2013-04-17 21:32:00,
2013-04-17 14:33:00,68.5,32.3,29.97,WSW,255,14.0,16.0,26,0.00,,,0.00,VWS V14.01,2013-04-17 21:33:00,
2013-04-17 14:35:00,68.8,32.5,29.97,WNW,297,8.0,12.0,26,0.00,,,0.00,VWS V14.01,2013-04-17 21:35:00,
2013-04-17 14:37:00,69.0,32.7,29.97,WSW,249,10.0,10.0,26,0.00,,,0.00,VWS V14.01,2013-04-17 21:37:00,
2013-04-17 14:38:00,69.2,30.9,29.97,West,278,7.0,7.0,24,0.00,,,0.00,VWS V14.01,2013-04-17 21:38:00,
2013-04-17 14:40:00,69.3,32.0,29.97,WNW,286,8.0,14.0,25,0.00,,,0.00,VWS V14.01,2013-04-17 21:40:00,
2013-04-17 14:42:00,69.2,31.9,29.97,WNW,298,6.0,15.0,25,0.00,,,0.00,VWS V14.01,2013-04-17 21:42:00,
2013-04-17 14:44:00,69.2,31.9,29.97,East,79,11.0,14.0,25,0.00,,,0.00,VWS V14.01,2013-04-17 21:44:00,
2013-04-17 14:45:00,69.2,30.9,29.97,WNW,285,9.0,15.0,24,0.00,,,0.00,VWS V14.01,2013-04-17 21:45:00,
2013-04-17 14:49:00,69.6,32.2,29.97,WNW,286,8.0,17.0,25,0.00,,,0.00,VWS V14.01,2013-04-17 21:49:00,
2013-04-17 14:51:00,69.5,32.2,29.97,WNW,293,8.0,16.0,25,0.00,,,0.00,VWS V14.01,2013-04-17 21:51:00,
2013-04-17 14:54:00,69.4,30.0,29.97,West,279,6.0,11.0,23,0.00,,,0.00,VWS V14.01,2013-04-17 21:54:00,
2013-04-17 14:55:00,69.3,31.0,29.97,WSW,243,5.0,14.0,24,0.00,,,0.00,VWS V14.01,2013-04-17 21:55:00,
2013-04-17 14:56:00,69.4,31.1,29.97,West,260,9.0,13.0,24,0.00,,,0.00,VWS V14.01,2013-04-17 21:56:00,
2013-04-17 15:00:00,69.8,29.3,29.97,West,264,8.0,18.0,22,0.00,,,0.00,VWS V14.01,2013-04-17 22:00:00,
2013-04-17 15:02:00,69.7,28.0,29.97,WNW,284,7.0,13.0,21,0.00,,,0.00,VWS V14.01,2013-04-17 22:02:00,
2013-04-17 15:06:00,69.9,29.4,29.97,WSW,257,11.0,21.0,22,0.00,,,0.00,VWS V14.01,2013-04-17 22:06:00,
2013-04-17 15:07:00,69.7,28.0,29.97,WSW,249,12.0,21.0,21,0.00,,,0.00,VWS V14.01,2013-04-17 22:07:00,
2013-04-17 15:08:00,69.5,27.9,29.97,SW,235,9.0,12.0,21,0.00,,,0.00,VWS V14.01,2013-04-17 22:08:00,
2013-04-17 15:09:00,69.4,28.9,29.97,WSW,256,11.0,16.0,22,0.00,,,0.00,VWS V14.01,2013-04-17 22:09:00,
2013-04-17 15:12:00,69.7,29.2,29.97,WNW,300,11.0,12.0,22,0.00,,,0.00,VWS V14.01,2013-04-17 22:12:00,
2013-04-17 15:13:00,69.9,28.2,29.97,WNW,283,7.0,14.0,21,0.00,,,0.00,VWS V14.01,2013-04-17 22:13:00,
2013-04-17 15:15:00,70.0,28.3,29.97,WNW,290,5.0,17.0,21,0.00,,,0.00,VWS V14.01,2013-04-17 22:15:00,
2013-04-17 15:17:00,70.3,28.5,29.96,NNW,337,2.0,8.0,21,0.00,,,0.00,VWS V14.01,2013-04-17 22:17:00,
2013-04-17 15:18:00,70.5,29.9,29.97,NW,315,3.0,6.0,22,0.00,,,0.00,VWS V14.01,2013-04-17 22:18:00,
2013-04-17 15:19:00,70.7,30.0,29.96,WSW,250,8.0,8.0,22,0.00,,,0.00,VWS V14.01,2013-04-17 22:19:00,
2013-04-17 15:21:00,70.9,29.0,29.96,West,271,4.0,6.0,21,0.00,,,0.00,VWS V14.01,2013-04-17 22:21:00,
2013-04-17 15:22:00,70.9,29.0,29.96,WNW,288,6.0,6.0,21,0.00,,,0.00,VWS V14.01,2013-04-17 22:22:00,
2013-04-17 15:24:00,71.0,29.1,29.96,NNW,330,4.0,13.0,21,0.00,,,0.00,VWS V14.01,2013-04-17 22:24:00,
2013-04-17 15:26:00,71.3,30.5,29.96,NW,315,6.0,7.0,22,0.00,,,0.00,VWS V14.01,2013-04-17 22:26:00,
2013-04-17 15:28:00,71.4,30.6,29.96,West,273,2.0,8.0,22,0.00,,,0.00,VWS V14.01,2013-04-17 22:28:00,
2013-04-17 15:30:00,71.4,30.6,29.96,NNW,335,5.0,10.0,22,0.00,,,0.00,VWS V14.01,2013-04-17 22:30:00,
2013-04-17 15:31:00,71.4,30.6,29.96,WSW,252,3.0,5.0,22,0.00,,,0.00,VWS V14.01,2013-04-17 22:31:00,
2013-04-17 15:33:00,71.7,32.0,29.96,WSW,257,7.0,11.0,23,0.00,,,0.00,VWS V14.01,2013-04-17 22:33:00,
2013-04-17 15:36:00,71.0,30.3,29.96,WSW,256,7.0,10.0,22,0.00,,,0.00,VWS V14.01,2013-04-17 22:36:00,
2013-04-17 15:37:00,70.7,28.9,29.96,WSW,257,7.0,16.0,21,0.00,,,0.00,VWS V14.01,2013-04-17 22:37:00,
2013-04-17 15:39:00,70.6,31.0,29.96,West,269,3.0,13.0,23,0.00,,,0.00,VWS V14.01,2013-04-17 22:39:00,
2013-04-17 15:40:00,70.5,29.9,29.96,West,262,7.0,15.0,22,0.00,,,0.00,VWS V14.01,2013-04-17 22:40:00,
2013-04-17 15:42:00,70.4,29.8,29.96,WNW,300,8.0,10.0,22,0.00,,,0.00,VWS V14.01,2013-04-17 22:42:00,
2013-04-17 15:44:00,70.0,29.4,29.96,WSW,248,17.0,17.0,22,0.00,,,0.00,VWS V14.01,2013-04-17 22:44:00,
2013-04-17 15:46:00,69.8,28.1,29.96,WSW,249,8.0,15.0,21,0.00,,,0.00,VWS V14.01,2013-04-17 22:46:00,
2013-04-17 15:47:00,69.8,29.3,29.96,WNW,287,7.0,12.0,22,0.00,,,0.00,VWS V14.01,2013-04-17 22:47:00,
2013-04-17 15:48:00,69.7,29.2,29.96,West,281,4.0,11.0,22,0.00,,,0.00,VWS V14.01,2013-04-17 22:48:00,
2013-04-17 15:49:00,69.6,30.2,29.96,West,276,2.0,7.0,23,0.00,,,0.00,VWS V14.01,2013-04-17 22:49:00,
2013-04-17 15:50:00,69.8,30.4,29.96,West,278,5.0,11.0,23,0.00,,,0.00,VWS V14.01,2013-04-17 22:50:00,
2013-04-17 15:53:00,70.1,29.5,29.96,NE,34,4.0,8.0,22,0.00,,,0.00,VWS V14.01,2013-04-17 22:53:00,
2013-04-17 15:56:00,70.8,30.1,29.96,NW,325,6.0,8.0,22,0.00,,,0.00,VWS V14.01,2013-04-17 22:56:00,
2013-04-17 15:58:00,70.9,29.0,29.96,SSW,207,5.0,6.0,21,0.00,,,0.00,VWS V14.01,2013-04-17 22:58:00,
2013-04-17 15:59:00,70.9,30.2,29.96,West,274,4.0,9.0,22,0.00,,,0.00,VWS V14.01,2013-04-17 22:59:00,
2013-04-17 16:01:00,70.9,29.0,29.96,WSW,238,7.0,12.0,21,0.00,,,0.00,VWS V14.01,2013-04-17 23:01:00,
2013-04-17 16:03:00,71.0,30.3,29.96,WNW,290,5.0,7.0,22,0.00,,,0.00,VWS V14.01,2013-04-17 23:03:00,
2013-04-17 16:05:00,71.0,28.0,29.96,NW,323,4.0,8.0,20,0.00,,,0.00,VWS V14.01,2013-04-17 23:05:00,
2013-04-17 16:06:00,70.8,29.0,29.96,West,271,7.0,7.0,21,0.00,,,0.00,VWS V14.01,2013-04-17 23:06:00,
2013-04-17 16:07:00,70.7,30.0,29.96,WSW,255,7.0,13.0,22,0.00,,,0.00,VWS V14.01,2013-04-17 23:07:00,
2013-04-17 16:10:00,70.6,28.8,29.96,WNW,284,4.0,9.0,21,0.00,,,0.00,VWS V14.01,2013-04-17 23:10:00,
2013-04-17 16:13:00,70.5,28.7,29.96,WSW,240,13.0,13.0,21,0.00,,,0.00,VWS V14.01,2013-04-17 23:13:00,
2013-04-17 16:14:00,70.4,28.6,29.96,SW,236,6.0,6.0,21,0.00,,,0.00,VWS V14.01,2013-04-17 23:14:00,
2013-04-17 16:15:00,70.2,27.3,29.96,WSW,253,12.0,15.0,20,0.00,,,0.00,VWS V14.01,2013-04-17 23:15:00,
2013-04-17 16:19:00,70.2,28.5,29.96,NNE,25,1.0,4.0,21,0.00,,,0.00,VWS V14.01,2013-04-17 23:19:00,
2013-04-17 16:20:00,70.4,28.6,29.96,West,278,4.0,7.0,21,0.00,,,0.00,VWS V14.01,2013-04-17 23:20:00,
2013-04-17 16:21:00,70.5,28.7,29.96,WNW,286,3.0,7.0,21,0.00,,,0.00,VWS V14.01,2013-04-17 23:21:00,
2013-04-17 16:24:00,70.2,28.5,29.96,WSW,248,5.0,9.0,21,0.00,,,0.00,VWS V14.01,2013-04-17 23:24:00,
2013-04-17 16:25:00,70.0,27.1,29.96,NNE,13,2.0,5.0,20,0.00,,,0.00,VWS V14.01,2013-04-17 23:25:00,
2013-04-17 16:29:00,70.3,28.5,29.96,SW,233,7.0,7.0,21,0.00,,,0.00,VWS V14.01,2013-04-17 23:29:00,
2013-04-17 16:30:00,70.4,28.6,29.96,WNW,293,4.0,7.0,21,0.00,,,0.00,VWS V14.01,2013-04-17 23:30:00,
2013-04-17 16:31:00,70.4,28.6,29.96,West,259,4.0,6.0,21,0.00,,,0.00,VWS V14.01,2013-04-17 23:31:00,
2013-04-17 16:33:00,70.5,28.7,29.96,WSW,254,4.0,5.0,21,0.00,,,0.00,VWS V14.01,2013-04-17 23:33:00,
2013-04-17 16:36:00,70.7,28.9,29.96,WNW,295,3.0,7.0,21,0.00,,,0.00,VWS V14.01,2013-04-17 23:36:00,
2013-04-17 16:38:00,70.8,29.0,29.96,West,278,4.0,5.0,21,0.00,,,0.00,VWS V14.01,2013-04-17 23:38:00,
2013-04-17 16:41:00,70.2,27.3,29.97,WNW,294,4.0,12.0,20,0.00,,,0.00,VWS V14.01,2013-04-17 23:41:00,
2013-04-17 16:42:00,70.1,27.2,29.97,WSW,243,7.0,14.0,20,0.00,,,0.00,VWS V14.01,2013-04-17 23:42:00,
2013-04-17 16:45:00,69.6,26.8,29.97,WSW,248,10.0,10.0,20,0.00,,,0.00,VWS V14.01,2013-04-17 23:45:00,
2013-04-17 16:46:00,69.5,26.7,29.96,WNW,297,4.0,10.0,20,0.00,,,0.00,VWS V14.01,2013-04-17 23:46:00,
2013-04-17 16:50:00,69.7,28.0,29.97,SSW,211,3.0,6.0,21,0.00,,,0.00,VWS V14.01,2013-04-17 23:50:00,
2013-04-17 16:51:00,69.8,28.1,29.97,NW,323,2.0,6.0,21,0.00,,,0.00,VWS V14.01,2013-04-17 23:51:00,
2013-04-17 16:52:00,69.8,27.0,29.97,North,350,8.0,8.0,20,0.00,,,0.00,VWS V14.01,2013-04-17 23:52:00,
2013-04-17 16:55:00,69.6,26.8,29.96,WNW,285,9.0,9.0,20,0.00,,,0.00,VWS V14.01,2013-04-17 23:55:00,
2013-04-17 16:56:00,69.5,27.9,29.96,WNW,293,5.0,9.0,21,0.00,,,0.00,VWS V14.01,2013-04-17 23:56:00,
2013-04-17 16:57:00,69.4,26.6,29.96,WNW,297,8.0,16.0,20,0.00,,,0.00,VWS V14.01,2013-04-17 23:57:00,
2013-04-17 16:59:00,69.0,27.5,29.96,WNW,287,6.0,12.0,21,0.00,,,0.00,VWS V14.01,2013-04-17 23:59:00,
2013-04-17 17:00:00,68.9,26.2,29.96,West,278,8.0,9.0,20,0.00,,,0.00,VWS V14.01,2013-04-18 00:00:00,
2013-04-17 17:02:00,68.9,27.4,29.97,WNW,288,5.0,6.0,21,0.00,,,0.00,VWS V14.01,2013-04-18 00:02:00,
2013-04-17 17:03:00,69.0,26.3,29.97,SW,221,3.0,5.0,20,0.00,,,0.00,VWS V14.01,2013-04-18 00:03:00,
2013-04-17 17:04:00,69.0,26.3,29.97,West,271,2.0,5.0,20,0.00,,,0.00,VWS V14.01,2013-04-18 00:04:00,
2013-04-17 17:06:00,69.4,26.6,29.97,NW,311,6.0,6.0,20,0.00,,,0.00,VWS V14.01,2013-04-18 00:06:00,
2013-04-17 17:07:00,69.5,26.7,29.97,NNW,347,8.0,8.0,20,0.00,,,0.00,VWS V14.01,2013-04-18 00:07:00,
2013-04-17 17:08:00,69.5,26.7,29.97,West,278,5.0,9.0,20,0.00,,,0.00,VWS V14.01,2013-04-18 00:08:00,
2013-04-17 17:09:00,69.4,26.6,29.97,NW,319,3.0,13.0,20,0.00,,,0.00,VWS V14.01,2013-04-18 00:09:00,
2013-04-17 17:10:00,69.4,26.6,29.97,WSW,250,9.0,9.0,20,0.00,,,0.00,VWS V14.01,2013-04-18 00:10:00,
2013-04-17 17:11:00,69.2,26.5,29.97,WSW,242,6.0,8.0,20,0.00,,,0.00,VWS V14.01,2013-04-18 00:11:00,
2013-04-17 17:13:00,69.1,27.6,29.97,West,274,7.0,10.0,21,0.00,,,0.00,VWS V14.01,2013-04-18 00:13:00,
2013-04-17 17:16:00,69.2,27.6,29.97,West,281,5.0,5.0,21,0.00,,,0.00,VWS V14.01,2013-04-18 00:16:00,
2013-04-17 17:17:00,69.2,27.6,29.97,SSW,207,2.0,6.0,21,0.00,,,0.00,VWS V14.01,2013-04-18 00:17:00,
2013-04-17 17:18:00,69.3,26.5,29.97,NNE,25,2.0,4.0,20,0.00,,,0.00,VWS V14.01,2013-04-18 00:18:00,
2013-04-17 17:21:00,69.0,26.3,29.97,NW,311,2.0,5.0,20,0.00,,,0.00,VWS V14.01,2013-04-18 00:21:00,
2013-04-17 17:23:00,68.8,26.1,29.97,SW,219,6.0,15.0,20,0.00,,,0.00,VWS V14.01,2013-04-18 00:23:00,
2013-04-17 17:25:00,68.6,27.1,29.97,NW,325,2.0,5.0,21,0.00,,,0.00,VWS V14.01,2013-04-18 00:25:00,
2013-04-17 17:26:00,68.6,27.1,29.97,North,9,2.0,4.0,21,0.00,,,0.00,VWS V14.01,2013-04-18 00:26:00,
2013-04-17 17:28:00,68.7,26.0,29.97,WSW,245,4.0,5.0,20,0.00,,,0.00,VWS V14.01,2013-04-18 00:28:00,
2013-04-17 17:29:00,68.7,26.0,29.97,WSW,244,4.0,6.0,20,0.00,,,0.00,VWS V14.01,2013-04-18 00:29:00,
2013-04-17 17:32:00,68.6,26.0,29.97,West,262,14.0,15.0,20,0.00,,,0.00,VWS V14.01,2013-04-18 00:32:00,
2013-04-17 17:34:00,68.2,25.6,29.97,WNW,298,5.0,9.0,20,0.00,,,0.00,VWS V14.01,2013-04-18 00:34:00,
2013-04-17 17:37:00,68.0,25.5,29.97,NW,304,3.0,7.0,20,0.00,,,0.00,VWS V14.01,2013-04-18 00:37:00,
2013-04-17 17:39:00,68.1,26.7,29.97,West,277,5.0,6.0,21,0.00,,,0.00,VWS V14.01,2013-04-18 00:39:00,
2013-04-17 17:40:00,68.2,25.6,29.97,West,274,14.0,14.0,20,0.00,,,0.00,VWS V14.01,2013-04-18 00:40:00,
2013-04-17 17:42:00,68.1,25.5,29.97,WNW,287,4.0,8.0,20,0.00,,,0.00,VWS V14.01,2013-04-18 00:42:00,
2013-04-17 17:43:00,68.0,25.5,29.97,West,278,8.0,12.0,20,0.00,,,0.00,VWS V14.01,2013-04-18 00:43:00,
2013-04-17 17:45:00,67.9,25.4,29.97,WSW,245,5.0,7.0,20,0.00,,,0.00,VWS V14.01,2013-04-18 00:45:00,
2013-04-17 17:50:00,68.0,25.5,29.97,WNW,293,5.0,9.0,20,0.00,,,0.00,VWS V14.01,2013-04-18 00:50:00,
2013-04-17 17:52:00,68.0,25.5,29.97,NNW,345,3.0,14.0,20,0.00,,,0.00,VWS V14.01,2013-04-18 00:52:00,
2013-04-17 17:53:00,68.0,25.5,29.97,WNW,286,6.0,9.0,20,0.00,,,0.00,VWS V14.01,2013-04-18 00:53:00,
2013-04-17 17:54:00,68.0,25.5,29.97,WNW,291,5.0,8.0,20,0.00,,,0.00,VWS V14.01,2013-04-18 00:54:00,
2013-04-17 17:56:00,67.9,25.4,29.97,West,278,4.0,10.0,20,0.00,,,0.00,VWS V14.01,2013-04-18 00:56:00,
2013-04-17 17:57:00,67.8,25.3,29.97,West,281,5.0,10.0,20,0.00,,,0.00,VWS V14.01,2013-04-18 00:57:00,
2013-04-17 17:58:00,67.7,25.2,29.97,NNW,333,2.0,4.0,20,0.00,,,0.00,VWS V14.01,2013-04-18 00:58:00,
2013-04-17 18:01:00,67.6,25.1,29.97,West,279,7.0,11.0,20,0.00,,,0.00,VWS V14.01,2013-04-18 01:01:00,
2013-04-17 18:02:00,67.5,25.0,29.97,WSW,252,7.0,7.0,20,0.00,,,0.00,VWS V14.01,2013-04-18 01:02:00,
2013-04-17 18:06:00,67.4,25.0,29.97,West,271,5.0,9.0,20,0.00,,,0.00,VWS V14.01,2013-04-18 01:06:00,
2013-04-17 18:07:00,67.3,26.1,29.97,SW,229,3.0,5.0,21,0.00,,,0.00,VWS V14.01,2013-04-18 01:07:00,
2013-04-17 18:08:00,67.3,26.1,29.97,NNW,339,3.0,5.0,21,0.00,,,0.00,VWS V14.01,2013-04-18 01:08:00,
2013-04-17 18:09:00,67.3,27.2,29.97,West,281,4.0,5.0,22,0.00,,,0.00,VWS V14.01,2013-04-18 01:09:00,
2013-04-17 18:13:00,67.5,27.4,29.97,West,281,7.0,7.0,22,0.00,,,0.00,VWS V14.01,2013-04-18 01:13:00,
2013-04-17 18:14:00,67.5,26.2,29.97,WNW,285,3.0,7.0,21,0.00,,,0.00,VWS V14.01,2013-04-18 01:14:00,
2013-04-17 18:15:00,67.4,26.1,29.97,WNW,298,5.0,8.0,21,0.00,,,0.00,VWS V14.01,2013-04-18 01:15:00,
2013-04-17 18:18:00,67.3,27.2,29.97,WNW,290,4.0,6.0,22,0.00,,,0.00,VWS V14.01,2013-04-18 01:18:00,
2013-04-17 18:20:00,67.3,27.2,29.97,NW,319,7.0,7.0,22,0.00,,,0.00,VWS V14.01,2013-04-18 01:20:00,
2013-04-17 18:21:00,67.3,27.2,29.97,WNW,291,4.0,7.0,22,0.00,,,0.00,VWS V14.01,2013-04-18 01:21:00,
2013-04-17 18:23:00,67.2,27.1,29.97,NW,319,3.0,5.0,22,0.00,,,0.00,VWS V14.01,2013-04-18 01:23:00,
2013-04-17 18:24:00,67.2,27.1,29.97,WNW,284,4.0,5.0,22,0.00,,,0.00,VWS V14.01,2013-04-18 01:24:00,
2013-04-17 18:26:00,67.1,27.0,29.97,NNW,330,2.0,4.0,22,0.00,,,0.00,VWS V14.01,2013-04-18 01:26:00,
2013-04-17 18:27:00,67.1,27.0,29.97,WNW,298,2.0,5.0,22,0.00,,,0.00,VWS V14.01,2013-04-18 01:27:00,
2013-04-17 18:29:00,67.1,27.0,29.98,WNW,298,2.0,4.0,22,0.00,,,0.00,VWS V14.01,2013-04-18 01:29:00,
2013-04-17 18:30:00,67.0,26.9,29.98,WNW,296,4.0,4.0,22,0.00,,,0.00,VWS V14.01,2013-04-18 01:30:00,
2013-04-17 18:32:00,66.8,26.8,29.98,NW,304,2.0,7.0,22,0.00,,,0.00,VWS V14.01,2013-04-18 01:32:00,
2013-04-17 18:34:00,66.7,26.7,29.97,NNW,335,7.0,7.0,22,0.00,,,0.00,VWS V14.01,2013-04-18 01:34:00,
2013-04-17 18:35:00,66.7,26.7,29.97,West,266,3.0,7.0,22,0.00,,,0.00,VWS V14.01,2013-04-18 01:35:00,
2013-04-17 18:39:00,66.4,27.5,29.98,WNW,300,4.0,5.0,23,0.00,,,0.00,VWS V14.01,2013-04-18 01:39:00,
2013-04-17 18:40:00,66.4,27.5,29.98,South,179,1.0,4.0,23,0.00,,,0.00,VWS V14.01,2013-04-18 01:40:00,
2013-04-17 18:41:00,66.4,27.5,29.98,WNW,291,1.0,1.0,23,0.00,,,0.00,VWS V14.01,2013-04-18 01:41:00,
2013-04-17 18:45:00,66.2,27.3,29.98,WNW,293,5.0,8.0,23,0.00,,,0.00,VWS V14.01,2013-04-18 01:45:00,
2013-04-17 18:46:00,66.2,27.3,29.98,WSW,251,3.0,9.0,23,0.00,,,0.00,VWS V14.01,2013-04-18 01:46:00,
2013-04-17 18:47:00,66.0,27.2,29.98,WNW,291,6.0,7.0,23,0.00,,,0.00,VWS V14.01,2013-04-18 01:47:00,
2013-04-17 18:50:00,65.8,27.0,29.98,West,266,2.0,6.0,23,0.00,,,0.00,VWS V14.01,2013-04-18 01:50:00,
2013-04-17 18:51:00,65.7,26.9,29.98,NNE,15,3.0,6.0,23,0.00,,,0.00,VWS V14.01,2013-04-18 01:51:00,
2013-04-17 18:52:00,65.6,26.8,29.98,WNW,300,4.0,8.0,23,0.00,,,0.00,VWS V14.01,2013-04-18 01:52:00,
2013-04-17 18:56:00,65.3,26.6,29.98,NNW,344,2.0,3.0,23,0.00,,,0.00,VWS V14.01,2013-04-18 01:56:00,
2013-04-17 18:57:00,65.2,26.5,29.98,NNW,333,2.0,6.0,23,0.00,,,0.00,VWS V14.01,2013-04-18 01:57:00,
2013-04-17 18:59:00,65.0,25.3,29.98,SSW,194,6.0,6.0,22,0.00,,,0.00,VWS V14.01,2013-04-18 01:59:00,
2013-04-17 19:01:00,64.7,25.0,29.98,West,281,1.0,5.0,22,0.00,,,0.00,VWS V14.01,2013-04-18 02:01:00,
2013-04-17 19:02:00,64.7,25.0,29.98,NW,307,4.0,4.0,22,0.00,,,0.00,VWS V14.01,2013-04-18 02:02:00,
2013-04-17 19:05:00,64.4,24.8,29.98,NNW,332,3.0,4.0,22,0.00,,,0.00,VWS V14.01,2013-04-18 02:05:00,
2013-04-17 19:07:00,64.2,24.6,29.98,NNW,335,6.0,9.0,22,0.00,,,0.00,VWS V14.01,2013-04-18 02:07:00,
2013-04-17 19:08:00,64.1,24.5,29.98,NW,309,3.0,6.0,22,0.00,,,0.00,VWS V14.01,2013-04-18 02:08:00,
2013-04-17 19:09:00,64.1,24.5,29.98,WNW,301,5.0,8.0,22,0.00,,,0.00,VWS V14.01,2013-04-18 02:09:00,
2013-04-17 19:11:00,63.8,24.2,29.98,WNW,286,5.0,7.0,22,0.00,,,0.00,VWS V14.01,2013-04-18 02:11:00,
2013-04-17 19:14:00,63.5,24.0,29.98,WNW,301,3.0,5.0,22,0.00,,,0.00,VWS V14.01,2013-04-18 02:14:00,
2013-04-17 19:15:00,63.4,23.9,29.98,WNW,285,3.0,8.0,22,0.00,,,0.00,VWS V14.01,2013-04-18 02:15:00,
2013-04-17 19:16:00,63.4,23.9,29.98,WNW,285,3.0,6.0,22,0.00,,,0.00,VWS V14.01,2013-04-18 02:16:00,
2013-04-17 19:18:00,63.2,23.8,29.98,NW,319,4.0,4.0,22,0.00,,,0.00,VWS V14.01,2013-04-18 02:18:00,
2013-04-17 19:20:00,63.0,24.6,29.98,WNW,285,2.0,6.0,23,0.00,,,0.00,VWS V14.01,2013-04-18 02:20:00,
2013-04-17 19:21:00,62.9,23.5,29.98,WSW,253,3.0,6.0,22,0.00,,,0.00,VWS V14.01,2013-04-18 02:21:00,
2013-04-17 19:22:00,62.9,23.5,29.98,West,259,2.0,7.0,22,0.00,,,0.00,VWS V14.01,2013-04-18 02:22:00,
2013-04-17 19:25:00,62.7,24.4,29.98,SW,218,5.0,6.0,23,0.00,,,0.00,VWS V14.01,2013-04-18 02:25:00,
2013-04-17 19:26:00,62.6,23.2,29.98,WNW,290,4.0,6.0,22,0.00,,,0.00,VWS V14.01,2013-04-18 02:26:00,
2013-04-17 19:27:00,62.6,23.2,29.98,WNW,287,4.0,7.0,22,0.00,,,0.00,VWS V14.01,2013-04-18 02:27:00,
2013-04-17 19:28:00,62.5,23.2,29.98,West,274,2.0,2.0,22,0.00,,,0.00,VWS V14.01,2013-04-18 02:28:00,
2013-04-17 19:30:00,62.4,23.1,29.98,North,358,2.0,6.0,22,0.00,,,0.00,VWS V14.01,2013-04-18 02:30:00,
2013-04-17 19:31:00,62.3,23.0,29.98,NNW,335,3.0,4.0,22,0.00,,,0.00,VWS V14.01,2013-04-18 02:31:00,
2013-04-17 19:32:00,62.3,23.0,29.98,NNW,347,3.0,7.0,22,0.00,,,0.00,VWS V14.01,2013-04-18 02:32:00,
2013-04-17 19:33:00,62.2,22.9,29.98,WNW,292,6.0,7.0,22,0.00,,,0.00,VWS V14.01,2013-04-18 02:33:00,
2013-04-17 19:35:00,62.1,22.8,29.98,NNE,20,3.0,3.0,22,0.00,,,0.00,VWS V14.01,2013-04-18 02:35:00,
2013-04-17 19:37:00,62.0,22.8,29.98,NNE,27,3.0,6.0,22,0.00,,,0.00,VWS V14.01,2013-04-18 02:37:00,
2013-04-17 19:39:00,62.0,22.8,29.98,NW,313,6.0,7.0,22,0.00,,,0.00,VWS V14.01,2013-04-18 02:39:00,
2013-04-17 19:40:00,61.9,22.7,29.98,NE,44,4.0,8.0,22,0.00,,,0.00,VWS V14.01,2013-04-18 02:40:00,
2013-04-17 19:43:00,61.8,22.6,29.98,North,1,2.0,4.0,22,0.00,,,0.00,VWS V14.01,2013-04-18 02:43:00,
2013-04-17 19:45:00,61.8,22.6,29.98,West,277,5.0,6.0,22,0.00,,,0.00,VWS V14.01,2013-04-18 02:45:00,
2013-04-17 19:46:00,61.8,22.6,29.98,WNW,293,3.0,6.0,22,0.00,,,0.00,VWS V14.01,2013-04-18 02:46:00,
2013-04-17 19:48:00,61.8,22.6,29.98,WNW,293,8.0,8.0,22,0.00,,,0.00,VWS V14.01,2013-04-18 02:48:00,
2013-04-17 19:51:00,61.7,22.5,29.98,NW,318,4.0,4.0,22,0.00,,,0.00,VWS V14.01,2013-04-18 02:51:00,
2013-04-17 19:53:00,61.6,22.4,29.98,North,4,4.0,6.0,22,0.00,,,0.00,VWS V14.01,2013-04-18 02:53:00,
2013-04-17 19:54:00,61.6,22.4,29.98,NW,311,3.0,3.0,22,0.00,,,0.00,VWS V14.01,2013-04-18 02:54:00,
2013-04-17 19:56:00,61.5,22.3,29.99,North,10,3.0,7.0,22,0.00,,,0.00,VWS V14.01,2013-04-18 02:56:00,
2013-04-17 19:57:00,61.4,22.2,29.99,West,281,1.0,5.0,22,0.00,,,0.00,VWS V14.01,2013-04-18 02:57:00,
2013-04-17 19:58:00,61.4,22.2,29.99,North,349,1.0,2.0,22,0.00,,,0.00,VWS V14.01,2013-04-18 02:58:00,
2013-04-17 19:59:00,61.4,22.2,29.99,NNE,12,2.0,3.0,22,0.00,,,0.00,VWS V14.01,2013-04-18 02:59:00,
2013-04-17 20:01:00,61.3,22.2,29.99,NNE,14,1.0,2.0,22,0.00,,,0.00,VWS V14.01,2013-04-18 03:01:00,
2013-04-17 20:02:00,61.3,22.2,30.00,NNE,15,0.0,1.0,22,0.00,,,0.00,VWS V14.01,2013-04-18 03:02:00,
2013-04-17 20:04:00,61.2,23.1,30.00,East,84,2.0,3.0,23,0.00,,,0.00,VWS V14.01,2013-04-18 03:04:00,
2013-04-17 20:05:00,61.2,23.1,30.00,ESE,120,1.0,2.0,23,0.00,,,0.00,VWS V14.01,2013-04-18 03:05:00,
2013-04-17 20:07:00,61.1,23.0,30.00,ESE,107,1.0,2.0,23,0.00,,,0.00,VWS V14.01,2013-04-18 03:07:00,
2013-04-17 20:08:00,61.1,23.0,30.00,NE,41,1.0,2.0,23,0.00,,,0.00,VWS V14.01,2013-04-18 03:08:00,
2013-04-17 20:09:00,61.1,23.0,30.00,North,357,1.0,1.0,23,0.00,,,0.00,VWS V14.01,2013-04-18 03:09:00,
2013-04-17 20:11:00,61.0,23.0,30.00,SE,143,1.0,1.0,23,0.00,,,0.00,VWS V14.01,2013-04-18 03:11:00,
2013-04-17 20:13:00,60.9,22.9,30.00,SE,124,1.0,1.0,23,0.00,,,0.00,VWS V14.01,2013-04-18 03:13:00,
2013-04-17 20:14:00,60.8,22.8,30.00,SE,124,0.0,1.0,23,0.00,,,0.00,VWS V14.01,2013-04-18 03:14:00,
2013-04-17 20:17:00,60.7,23.7,30.01,NNW,347,0.0,1.0,24,0.00,,,0.00,VWS V14.01,2013-04-18 03:17:00,
2013-04-17 20:19:00,60.6,23.6,30.01,NNW,347,0.0,1.0,24,0.00,,,0.00,VWS V14.01,2013-04-18 03:19:00,
2013-04-17 20:21:00,60.5,23.5,30.01,NNW,347,0.0,0.0,24,0.00,,,0.00,VWS V14.01,2013-04-18 03:21:00,
2013-04-17 20:23:00,60.4,24.4,30.01,NNW,347,0.0,0.0,25,0.00,,,0.00,VWS V14.01,2013-04-18 03:23:00,
2013-04-17 20:24:00,60.2,24.3,30.01,North,357,1.0,2.0,25,0.00,,,0.00,VWS V14.01,2013-04-18 03:24:00,
2013-04-17 20:25:00,60.2,24.3,30.01,NNW,345,0.0,1.0,25,0.00,,,0.00,VWS V14.01,2013-04-18 03:25:00,
2013-04-17 20:28:00,60.2,24.3,30.01,NNW,330,1.0,1.0,25,0.00,,,0.00,VWS V14.01,2013-04-18 03:28:00,
2013-04-17 20:29:00,60.2,24.3,30.01,NNW,339,2.0,2.0,25,0.00,,,0.00,VWS V14.01,2013-04-18 03:29:00,
2013-04-17 20:30:00,60.1,24.2,30.01,NNW,330,2.0,2.0,25,0.00,,,0.00,VWS V14.01,2013-04-18 03:30:00,
2013-04-17 20:32:00,60.1,25.1,30.01,NNW,337,1.0,3.0,26,0.00,,,0.00,VWS V14.01,2013-04-18 03:32:00,
2013-04-17 20:33:00,60.1,25.1,30.01,NNW,344,2.0,2.0,26,0.00,,,0.00,VWS V14.01,2013-04-18 03:33:00,
2013-04-17 20:34:00,60.1,25.1,30.01,NW,310,2.0,2.0,26,0.00,,,0.00,VWS V14.01,2013-04-18 03:34:00,
2013-04-17 20:37:00,60.0,26.0,30.01,NNW,328,1.0,1.0,27,0.00,,,0.00,VWS V14.01,2013-04-18 03:37:00,
2013-04-17 20:38:00,60.0,26.0,30.01,NNW,330,2.0,4.0,27,0.00,,,0.00,VWS V14.01,2013-04-18 03:38:00,
2013-04-17 20:39:00,60.0,26.0,30.01,NNW,330,1.0,4.0,27,0.00,,,0.00,VWS V14.01,2013-04-18 03:39:00,
2013-04-17 20:40:00,60.0,26.0,30.01,NW,310,2.0,3.0,27,0.00,,,0.00,VWS V14.01,2013-04-18 03:40:00,
2013-04-17 20:44:00,60.0,26.8,30.01,NNW,337,0.0,3.0,28,0.00,,,0.00,VWS V14.01,2013-04-18 03:44:00,
2013-04-17 20:45:00,60.0,26.8,30.01,West,269,0.0,1.0,28,0.00,,,0.00,VWS V14.01,2013-04-18 03:45:00,
2013-04-17 20:46:00,59.9,26.7,30.01,North,4,2.0,2.0,28,0.00,,,0.00,VWS V14.01,2013-04-18 03:46:00,
2013-04-17 20:47:00,59.9,26.7,30.01,NW,322,0.0,1.0,28,0.00,,,0.00,VWS V14.01,2013-04-18 03:47:00,
2013-04-17 20:50:00,59.7,26.6,30.02,NNW,335,2.0,2.0,28,0.00,,,0.00,VWS V14.01,2013-04-18 03:50:00,
2013-04-17 20:51:00,59.7,26.6,30.02,NNW,342,1.0,3.0,28,0.00,,,0.00,VWS V14.01,2013-04-18 03:51:00,
2013-04-17 20:52:00,59.7,26.6,30.02,NNW,347,1.0,1.0,28,0.00,,,0.00,VWS V14.01,2013-04-18 03:52:00,
2013-04-17 20:53:00,59.7,27.4,30.02,NW,322,2.0,7.0,29,0.00,,,0.00,VWS V14.01,2013-04-18 03:53:00,
2013-04-17 20:56:00,59.6,27.3,30.02,NNW,345,1.0,2.0,29,0.00,,,0.00,VWS V14.01,2013-04-18 03:56:00,
2013-04-17 20:58:00,59.6,27.3,30.02,WNW,297,0.0,1.0,29,0.00,,,0.00,VWS V14.01,2013-04-18 03:58:00,
2013-04-17 20:59:00,59.6,27.3,30.02,WNW,297,1.0,1.0,29,0.00,,,0.00,VWS V14.01,2013-04-18 03:59:00,
2013-04-17 21:01:00,59.4,27.2,30.02,NNW,333,2.0,4.0,29,0.00,,,0.00,VWS V14.01,2013-04-18 04:01:00,
2013-04-17 21:02:00,59.4,28.0,30.02,NNW,344,0.0,2.0,30,0.00,,,0.00,VWS V14.01,2013-04-18 04:02:00,
2013-04-17 21:03:00,59.4,28.0,30.02,NNW,344,0.0,0.0,30,0.00,,,0.00,VWS V14.01,2013-04-18 04:03:00,
2013-04-17 21:08:00,59.0,27.6,30.02,NNW,344,0.0,2.0,30,0.00,,,0.00,VWS V14.01,2013-04-18 04:08:00,
2013-04-17 21:09:00,59.0,27.6,30.02,North,349,0.0,2.0,30,0.00,,,0.00,VWS V14.01,2013-04-18 04:09:00,
2013-04-17 21:11:00,58.8,28.3,30.02,North,350,0.0,1.0,31,0.00,,,0.00,VWS V14.01,2013-04-18 04:11:00,
2013-04-17 21:14:00,58.6,28.1,30.02,WNW,292,0.0,1.0,31,0.00,,,0.00,VWS V14.01,2013-04-18 04:14:00,
2013-04-17 21:15:00,58.5,28.0,30.02,WNW,293,0.0,0.0,31,0.00,,,0.00,VWS V14.01,2013-04-18 04:15:00,
2013-04-17 21:16:00,58.4,27.9,30.02,WNW,292,1.0,1.0,31,0.00,,,0.00,VWS V14.01,2013-04-18 04:16:00,
2013-04-17 21:19:00,58.2,28.5,30.02,WNW,293,0.0,0.0,32,0.00,,,0.00,VWS V14.01,2013-04-18 04:19:00,
2013-04-17 21:20:00,58.2,28.5,30.02,WNW,292,0.0,0.0,32,0.00,,,0.00,VWS V14.01,2013-04-18 04:20:00,
2013-04-17 21:22:00,58.0,28.3,30.02,WNW,293,0.0,0.0,32,0.00,,,0.00,VWS V14.01,2013-04-18 04:22:00,
2013-04-17 21:24:00,57.9,28.2,30.02,WNW,292,0.0,1.0,32,0.00,,,0.00,VWS V14.01,2013-04-18 04:24:00,
2013-04-17 21:27:00,57.9,29.0,30.03,NNW,332,1.0,3.0,33,0.00,,,0.00,VWS V14.01,2013-04-18 04:27:00,
2013-04-17 21:28:00,57.9,29.0,30.02,NW,308,1.0,1.0,33,0.00,,,0.00,VWS V14.01,2013-04-18 04:28:00,
2013-04-17 21:29:00,57.9,29.0,30.02,NW,316,1.0,1.0,33,0.00,,,0.00,VWS V14.01,2013-04-18 04:29:00,
2013-04-17 21:31:00,57.9,29.0,30.03,NW,316,1.0,1.0,33,0.00,,,0.00,VWS V14.01,2013-04-18 04:31:00,
2013-04-17 21:33:00,57.8,28.9,30.03,NW,316,0.0,0.0,33,0.00,,,0.00,VWS V14.01,2013-04-18 04:33:00,
2013-04-17 21:34:00,57.8,28.9,30.03,NW,316,0.0,0.0,33,0.00,,,0.00,VWS V14.01,2013-04-18 04:34:00,
2013-04-17 21:35:00,57.7,28.8,30.03,NW,316,0.0,0.0,33,0.00,,,0.00,VWS V14.01,2013-04-18 04:35:00,
2013-04-17 21:37:00,57.6,28.7,30.03,NW,316,0.0,0.0,33,0.00,,,0.00,VWS V14.01,2013-04-18 04:37:00,
2013-04-17 21:39:00,57.5,28.6,30.03,NW,316,0.0,0.0,33,0.00,,,0.00,VWS V14.01,2013-04-18 04:39:00,
2013-04-17 21:40:00,57.5,28.6,30.03,NW,316,0.0,1.0,33,0.00,,,0.00,VWS V14.01,2013-04-18 04:40:00,
2013-04-17 21:42:00,57.5,28.6,30.03,NW,316,1.0,1.0,33,0.00,,,0.00,VWS V14.01,2013-04-18 04:42:00,
2013-04-17 21:46:00,57.6,28.7,30.03,NW,316,0.0,0.0,33,0.00,,,0.00,VWS V14.01,2013-04-18 04:46:00,
2013-04-17 21:47:00,57.6,28.7,30.03,NW,316,0.0,0.0,33,0.00,,,0.00,VWS V14.01,2013-04-18 04:47:00,
2013-04-17 21:48:00,57.6,28.7,30.03,NW,316,0.0,0.0,33,0.00,,,0.00,VWS V14.01,2013-04-18 04:48:00,
2013-04-17 21:49:00,57.6,28.7,30.03,NW,316,0.0,0.0,33,0.00,,,0.00,VWS V14.01,2013-04-18 04:49:00,
2013-04-17 21:51:00,57.5,28.6,30.02,NW,316,0.0,0.0,33,0.00,,,0.00,VWS V14.01,2013-04-18 04:51:00,
2013-04-17 21:52:00,57.5,28.6,30.03,NW,316,0.0,0.0,33,0.00,,,0.00,VWS V14.01,2013-04-18 04:52:00,
2013-04-17 21:53:00,57.5,28.6,30.02,NW,316,0.0,0.0,33,0.00,,,0.00,VWS V14.01,2013-04-18 04:53:00,
2013-04-17 21:54:00,57.4,28.5,30.03,NW,316,0.0,0.0,33,0.00,,,0.00,VWS V14.01,2013-04-18 04:54:00,
2013-04-17 21:57:00,57.4,29.3,30.03,NW,316,0.0,0.0,34,0.00,,,0.00,VWS V14.01,2013-04-18 04:57:00,
2013-04-17 21:58:00,57.4,29.3,30.03,NW,316,0.0,0.0,34,0.00,,,0.00,VWS V14.01,2013-04-18 04:58:00,
2013-04-17 22:00:00,57.3,29.2,30.03,NW,316,0.0,0.0,34,0.00,,,0.00,VWS V14.01,2013-04-18 05:00:00,
2013-04-17 22:01:00,57.2,29.1,30.03,NW,316,0.0,0.0,34,0.00,,,0.00,VWS V14.01,2013-04-18 05:01:00,
2013-04-17 22:03:00,57.2,29.1,30.03,NW,316,0.0,0.0,34,0.00,,,0.00,VWS V14.01,2013-04-18 05:03:00,
2013-04-17 22:04:00,57.2,29.1,30.02,NW,316,0.0,0.0,34,0.00,,,0.00,VWS V14.01,2013-04-18 05:04:00,
2013-04-17 22:06:00,57.2,29.1,30.03,NW,316,0.0,0.0,34,0.00,,,0.00,VWS V14.01,2013-04-18 05:06:00,
2013-04-17 22:07:00,57.1,29.0,30.03,NW,316,0.0,0.0,34,0.00,,,0.00,VWS V14.01,2013-04-18 05:07:00,
2013-04-17 22:09:00,57.0,29.6,30.03,ENE,60,1.0,2.0,35,0.00,,,0.00,VWS V14.01,2013-04-18 05:09:00,
2013-04-17 22:10:00,56.9,30.2,30.03,ENE,59,0.0,0.0,36,0.00,,,0.00,VWS V14.01,2013-04-18 05:10:00,
2013-04-17 22:11:00,56.8,30.1,30.03,ENE,60,1.0,1.0,36,0.00,,,0.00,VWS V14.01,2013-04-18 05:11:00,
2013-04-17 22:13:00,56.7,30.1,30.02,ENE,59,0.0,0.0,36,0.00,,,0.00,VWS V14.01,2013-04-18 05:13:00,
2013-04-17 22:15:00,56.5,29.9,30.03,ENE,60,0.0,0.0,36,0.00,,,0.00,VWS V14.01,2013-04-18 05:15:00,
2013-04-17 22:16:00,56.4,29.8,30.03,ENE,59,0.0,0.0,36,0.00,,,0.00,VWS V14.01,2013-04-18 05:16:00,
2013-04-17 22:18:00,56.1,29.5,30.03,ENE,59,0.0,0.0,36,0.00,,,0.00,VWS V14.01,2013-04-18 05:18:00,
2013-04-17 22:20:00,55.9,29.4,30.03,ENE,60,0.0,1.0,36,0.00,,,0.00,VWS V14.01,2013-04-18 05:20:00,
2013-04-17 22:22:00,55.8,29.3,30.02,ENE,59,0.0,0.0,36,0.00,,,0.00,VWS V14.01,2013-04-18 05:22:00,
2013-04-17 22:25:00,55.7,29.9,30.02,ENE,59,0.0,0.0,37,0.00,,,0.00,VWS V14.01,2013-04-18 05:25:00,
2013-04-17 22:26:00,55.6,29.8,30.02,ENE,60,0.0,0.0,37,0.00,,,0.00,VWS V14.01,2013-04-18 05:26:00,
2013-04-17 22:29:00,55.5,29.7,30.03,ENE,59,0.0,0.0,37,0.00,,,0.00,VWS V14.01,2013-04-18 05:29:00,
2013-04-17 22:30:00,55.5,29.7,30.03,ENE,59,0.0,0.0,37,0.00,,,0.00,VWS V14.01,2013-04-18 05:30:00,
2013-04-17 22:32:00,55.5,30.3,30.03,ENE,60,1.0,1.0,38,0.00,,,0.00,VWS V14.01,2013-04-18 05:32:00,
2013-04-17 22:33:00,55.4,30.2,30.03,ENE,60,1.0,1.0,38,0.00,,,0.00,VWS V14.01,2013-04-18 05:33:00,
2013-04-17 22:35:00,55.3,30.1,30.03,East,98,1.0,1.0,38,0.00,,,0.00,VWS V14.01,2013-04-18 05:35:00,
2013-04-17 22:37:00,55.1,30.6,30.03,ESE,115,3.0,3.0,39,0.00,,,0.00,VWS V14.01,2013-04-18 05:37:00,
2013-04-17 22:38:00,55.0,30.5,30.03,ESE,111,2.0,3.0,39,0.00,,,0.00,VWS V14.01,2013-04-18 05:38:00,
2013-04-17 22:39:00,55.0,30.5,30.03,ESE,107,2.0,2.0,39,0.00,,,0.00,VWS V14.01,2013-04-18 05:39:00,
2013-04-17 22:40:00,55.0,30.5,30.03,East,98,2.0,2.0,39,0.00,,,0.00,VWS V14.01,2013-04-18 05:40:00,
2013-04-17 22:43:00,54.9,31.0,30.03,ENE,76,2.0,2.0,40,0.00,,,0.00,VWS V14.01,2013-04-18 05:43:00,
2013-04-17 22:44:00,54.9,31.0,30.03,East,100,3.0,4.0,40,0.00,,,0.00,VWS V14.01,2013-04-18 05:44:00,
2013-04-17 22:45:00,54.9,31.0,30.04,East,83,4.0,4.0,40,0.00,,,0.00,VWS V14.01,2013-04-18 05:45:00,
2013-04-17 22:46:00,54.9,30.4,30.04,SE,127,3.0,4.0,39,0.00,,,0.00,VWS V14.01,2013-04-18 05:46:00,
2013-04-17 22:48:00,55.0,30.5,30.03,ESE,113,1.0,2.0,39,0.00,,,0.00,VWS V14.01,2013-04-18 05:48:00,
2013-04-17 22:49:00,55.1,30.6,30.03,ESE,113,0.0,1.0,39,0.00,,,0.00,VWS V14.01,2013-04-18 05:49:00,
2013-04-17 22:50:00,55.0,30.5,30.03,ESE,113,0.0,1.0,39,0.00,,,0.00,VWS V14.01,2013-04-18 05:50:00,
2013-04-17 22:53:00,54.9,30.4,30.03,South,169,1.0,1.0,39,0.00,,,0.00,VWS V14.01,2013-04-18 05:53:00,
2013-04-17 22:55:00,54.9,29.8,30.03,South,169,0.0,0.0,38,0.00,,,0.00,VWS V14.01,2013-04-18 05:55:00,
2013-04-17 22:56:00,54.9,29.8,30.03,South,169,0.0,0.0,38,0.00,,,0.00,VWS V14.01,2013-04-18 05:56:00,
2013-04-17 22:59:00,55.0,29.9,30.04,ESE,118,1.0,1.0,38,0.00,,,0.00,VWS V14.01,2013-04-18 05:59:00,
2013-04-17 23:01:00,55.0,30.5,30.04,ESE,118,0.0,0.0,39,0.00,,,0.00,VWS V14.01,2013-04-18 06:01:00,
2013-04-17 23:02:00,55.0,30.5,30.04,ESE,118,0.0,0.0,39,0.00,,,0.00,VWS V14.01,2013-04-18 06:02:00,
2013-04-17 23:03:00,54.9,30.4,30.04,ESE,118,0.0,0.0,39,0.00,,,0.00,VWS V14.01,2013-04-18 06:03:00,
2013-04-17 23:06:00,54.7,30.2,30.04,ESE,118,0.0,1.0,39,0.00,,,0.00,VWS V14.01,2013-04-18 06:06:00,
2013-04-17 23:07:00,54.5,30.1,30.04,ESE,118,0.0,0.0,39,0.00,,,0.00,VWS V14.01,2013-04-18 06:07:00,
2013-04-17 23:08:00,54.5,29.4,30.04,ESE,118,0.0,0.0,38,0.00,,,0.00,VWS V14.01,2013-04-18 06:08:00,
2013-04-17 23:11:00,54.5,30.1,30.04,ESE,118,0.0,0.0,39,0.00,,,0.00,VWS V14.01,2013-04-18 06:11:00,
2013-04-17 23:12:00,54.4,29.3,30.04,ESE,118,0.0,0.0,38,0.00,,,0.00,VWS V14.01,2013-04-18 06:12:00,
2013-04-17 23:13:00,54.4,30.0,30.04,ESE,118,0.0,0.0,39,0.00,,,0.00,VWS V14.01,2013-04-18 06:13:00,
2013-04-17 23:15:00,54.3,29.9,30.04,ESE,118,0.0,0.0,39,0.00,,,0.00,VWS V14.01,2013-04-18 06:15:00,
2013-04-17 23:17:00,54.1,29.7,30.04,ESE,118,0.0,0.0,39,0.00,,,0.00,VWS V14.01,2013-04-18 06:17:00,
2013-04-17 23:18:00,54.1,29.7,30.04,WSW,253,0.0,0.0,39,0.00,,,0.00,VWS V14.01,2013-04-18 06:18:00,
2013-04-17 23:21:00,53.9,30.8,30.04,WSW,253,0.0,0.0,41,0.00,,,0.00,VWS V14.01,2013-04-18 06:21:00,
2013-04-17 23:22:00,53.8,30.1,30.04,WSW,253,0.0,0.0,40,0.00,,,0.00,VWS V14.01,2013-04-18 06:22:00,
2013-04-17 23:23:00,53.7,30.6,30.04,WSW,253,0.0,0.0,41,0.00,,,0.00,VWS V14.01,2013-04-18 06:23:00,
2013-04-17 23:24:00,53.7,30.6,30.04,WSW,250,1.0,1.0,41,0.00,,,0.00,VWS V14.01,2013-04-18 06:24:00,
2013-04-17 23:26:00,53.5,31.0,30.04,East,98,1.0,2.0,42,0.00,,,0.00,VWS V14.01,2013-04-18 06:26:00,
2013-04-17 23:27:00,53.5,29.8,30.04,East,96,2.0,2.0,40,0.00,,,0.00,VWS V14.01,2013-04-18 06:27:00,
2013-04-17 23:29:00,53.6,29.9,30.04,East,91,1.0,2.0,40,0.00,,,0.00,VWS V14.01,2013-04-18 06:29:00,
2013-04-17 23:30:00,53.7,30.0,30.04,East,91,1.0,1.0,40,0.00,,,0.00,VWS V14.01,2013-04-18 06:30:00,
2013-04-17 23:31:00,53.8,30.1,30.04,East,90,0.0,1.0,40,0.00,,,0.00,VWS V14.01,2013-04-18 06:31:00,
2013-04-17 23:33:00,53.8,29.4,30.04,East,91,0.0,0.0,39,0.00,,,0.00,VWS V14.01,2013-04-18 06:33:00,
2013-04-17 23:35:00,53.7,30.0,30.04,East,91,1.0,1.0,40,0.00,,,0.00,VWS V14.01,2013-04-18 06:35:00,
2013-04-17 23:36:00,53.7,30.0,30.04,East,91,1.0,1.0,40,0.00,,,0.00,VWS V14.01,2013-04-18 06:36:00,
2013-04-17 23:37:00,53.7,30.0,30.04,ENE,60,1.0,1.0,40,0.00,,,0.00,VWS V14.01,2013-04-18 06:37:00,
2013-04-17 23:38:00,53.6,29.9,30.04,ENE,60,1.0,1.0,40,0.00,,,0.00,VWS V14.01,2013-04-18 06:38:00,
2013-04-17 23:39:00,53.5,30.4,30.04,ENE,59,0.0,0.0,41,0.00,,,0.00,VWS V14.01,2013-04-18 06:39:00,
2013-04-17 23:42:00,53.4,30.3,30.05,ENE,60,0.0,0.0,41,0.00,,,0.00,VWS V14.01,2013-04-18 06:42:00,
2013-04-17 23:43:00,53.3,31.4,30.05,ENE,60,0.0,1.0,43,0.00,,,0.00,VWS V14.01,2013-04-18 06:43:00,
2013-04-17 23:44:00,53.3,31.4,30.05,ENE,60,1.0,1.0,43,0.00,,,0.00,VWS V14.01,2013-04-18 06:44:00,
2013-04-17 23:47:00,52.9,31.6,30.05,ESE,112,2.0,2.0,44,0.00,,,0.00,VWS V14.01,2013-04-18 06:47:00,
2013-04-17 23:48:00,52.7,31.4,30.05,ESE,111,1.0,1.0,44,0.00,,,0.00,VWS V14.01,2013-04-18 06:48:00,
2013-04-17 23:49:00,52.5,31.8,30.05,ESE,111,1.0,1.0,45,0.00,,,0.00,VWS V14.01,2013-04-18 06:49:00,
2013-04-17 23:52:00,52.3,32.2,30.05,East,90,1.0,2.0,46,0.00,,,0.00,VWS V14.01,2013-04-18 06:52:00,
2013-04-17 23:53:00,52.2,32.1,30.05,East,91,0.0,0.0,46,0.00,,,0.00,VWS V14.01,2013-04-18 06:53:00,
2013-04-17 23:54:00,52.2,32.1,30.05,East,91,0.0,0.0,46,0.00,,,0.00,VWS V14.01,2013-04-18 06:54:00,
2013-04-17 23:57:00,52.0,31.9,30.05,East,91,0.0,1.0,46,0.00,,,0.00,VWS V14.01,2013-04-18 06:57:00,
2013-04-17 23:58:00,51.9,31.8,30.05,East,91,1.0,1.0,46,0.00,,,0.00,VWS V14.01,2013-04-18 06:58:00,
2013-04-17 23:59:00,51.9,31.8,30.05,East,90,0.0,1.0,46,0.00,,,0.00,VWS V14.01,2013-04-18 06:59:00,